| time (UTC) | temp F | wind direction | speed MPH | gust MPH | rain 1hr in | rain 24hr in | rain mn in | humidity % | barometer mb |
| 20260831172603 | 69 | 38 | 2.0 | 4.0 | 0.00 | 0.00 | 0.00 | 76 | 1014.4 |
| 20260831172503 | 69 | 74 | 3.0 | 4.0 | 0.00 | 0.00 | 0.00 | 74 | 1014.4 |
| 20260831172418 | 70 | 96 | 3.0 | 4.0 | 0.00 | 0.00 | 0.00 | 74 | 1014.5 |
| 20260831172403 | 70 | 108 | 3.0 | 4.0 | 0.00 | 0.00 | 0.00 | 74 | 1014.5 |
| 20260831172306 | 72 | 134 | 2.0 | 4.0 | 0.00 | 0.00 | 0.00 | 73 | 1014.5 |
| 20260831172118 | 72 | 178 | 2.0 | 4.0 | 0.00 | 0.00 | 0.00 | 73 | 1014.7 |
| 20260831172103 | 72 | 190 | 2.0 | 4.0 | 0.00 | 0.00 | 0.00 | 73 | 1014.7 |
| 20260831172003 | 72 | 198 | 1.0 | 4.0 | 0.00 | 0.00 | 0.00 | 74 | 1014.5 |
| 20260831171917 | 71 | 176 | 2.0 | 4.0 | 0.00 | 0.00 | 0.00 | 74 | 1014.7 |
| 20260831171803 | 71 | 111 | 0.0 | 4.0 | 0.00 | 0.00 | 0.00 | 76 | 1014.6 |
| 20260831171617 | 69 | 99 | 1.0 | 4.0 | 0.00 | 0.00 | 0.00 | 77 | 1014.5 |
| 20260831171603 | 69 | 92 | 1.0 | 4.0 | 0.00 | 0.00 | 0.00 | 77 | 1014.5 |
| 20260831171503 | 69 | 66 | 1.0 | 4.0 | 0.00 | 0.00 | 0.00 | 77 | 1014.7 |
| 20260831171303 | 69 | 16 | 2.0 | 6.0 | 0.00 | 0.00 | 0.00 | 77 | 1014.6 |
| 20260831171203 | 69 | 3 | 2.0 | 6.0 | 0.00 | 0.00 | 0.00 | 77 | 1014.6 |
| 20260831171103 | 68 | 349 | 2.0 | 7.0 | 0.00 | 0.00 | 0.00 | 77 | 1014.3 |
| 20260831171003 | 68 | 348 | 2.0 | 7.0 | 0.00 | 0.00 | 0.00 | 78 | 1014.2 |
| 20260831170917 | 68 | 347 | 4.0 | 8.0 | 0.00 | 0.00 | 0.00 | 78 | 1014.6 |
| 20260831170903 | 68 | 348 | 4.0 | 8.0 | 0.00 | 0.00 | 0.00 | 78 | 1014.6 |
| 20260831170803 | 68 | 356 | 4.0 | 8.0 | 0.00 | 0.00 | 0.00 | 78 | 1014.4 |
| 20260831170603 | 68 | 16 | 3.0 | 8.0 | 0.00 | 0.00 | 0.00 | 78 | 1014.2 |
| 20260831170518 | 68 | 35 | 3.0 | 8.0 | 0.00 | 0.00 | 0.00 | 78 | 1014.6 |
| 20260831170503 | 68 | 40 | 3.0 | 8.0 | 0.00 | 0.00 | 0.00 | 78 | 1014.6 |
| 20260831170418 | 68 | 54 | 5.0 | 8.0 | 0.00 | 0.00 | 0.00 | 78 | 1014.5 |
| 20260831170403 | 68 | 58 | 5.0 | 8.0 | 0.00 | 0.00 | 0.00 | 78 | 1014.5 |
| 20260831170103 | 67 | 67 | 3.0 | 6.0 | 0.00 | 0.00 | 0.00 | 77 | 1014.7 |
| 20260831170003 | 68 | 21 | 3.0 | 6.0 | 0.00 | 0.00 | 0.00 | 77 | 1014.5 |
| 20260831165808 | 69 | 255 | 0.0 | 2.0 | 0.00 | 0.00 | 0.00 | 78 | 1014.8 |
| 20260831165703 | 68 | 248 | 1.0 | 4.0 | 0.00 | 0.00 | 0.00 | 77 | 1014.7 |
| 20260831165603 | 68 | 247 | 1.0 | 4.0 | 0.00 | 0.00 | 0.00 | 78 | 1014.6 |
| 20260831165503 | 68 | 238 | 0.0 | 4.0 | 0.00 | 0.00 | 0.00 | 78 | 1014.6 |
| 20260831165418 | 68 | 229 | 2.0 | 4.0 | 0.00 | 0.00 | 0.00 | 78 | 1014.6 |
| 20260831165305 | 68 | 222 | 2.0 | 4.0 | 0.00 | 0.00 | 0.00 | 78 | 1014.5 |
| 20260831165217 | 68 | 221 | 2.0 | 4.0 | 0.00 | 0.00 | 0.00 | 78 | 1014.5 |
| 20260831165103 | 68 | 217 | 2.0 | 4.0 | 0.00 | 0.00 | 0.00 | 76 | 1014.5 |
| 20260831164903 | 70 | 152 | 2.0 | 2.0 | 0.00 | 0.00 | 0.00 | 75 | 1014.8 |
| 20260831164803 | 69 | 111 | 1.0 | 2.0 | 0.00 | 0.00 | 0.00 | 76 | 1014.5 |
| 20260831164718 | 69 | 98 | 1.0 | 2.0 | 0.00 | 0.00 | 0.00 | 76 | 1014.7 |
| 20260831164703 | 69 | 98 | 0.0 | 2.0 | 0.00 | 0.00 | 0.00 | 76 | 1014.6 |
| 20260831164609 | 69 | 97 | 1.0 | 2.0 | 0.00 | 0.00 | 0.00 | 76 | 1014.6 |
| 20260831164403 | 69 | 41 | 1.0 | 2.0 | 0.00 | 0.00 | 0.00 | 77 | 1014.6 |
| 20260831164303 | 69 | 356 | 0.0 | 2.0 | 0.00 | 0.00 | 0.00 | 78 | 1014.7 |
| 20260831164203 | 68 | 341 | 0.0 | 2.0 | 0.00 | 0.00 | 0.00 | 79 | 1014.5 |
| 20260831164103 | 68 | 338 | 0.0 | 2.0 | 0.00 | 0.00 | 0.00 | 79 | 1015.0 |
| 20260831164003 | 67 | 348 | 0.0 | 2.0 | 0.00 | 0.00 | 0.00 | 80 | 1014.7 |
| 20260831163917 | 67 | 2 | 1.0 | 2.0 | 0.00 | 0.00 | 0.00 | 79 | 1014.7 |
| 20260831163903 | 67 | 11 | 2.0 | 4.0 | 0.00 | 0.00 | 0.00 | 79 | 1014.7 |
| 20260831163803 | 67 | 43 | 1.0 | 4.0 | 0.00 | 0.00 | 0.00 | 79 | 1014.7 |
| 20260831163603 | 67 | 71 | 2.0 | 4.0 | 0.00 | 0.00 | 0.00 | 79 | 1014.8 |
| 20260831163503 | 67 | 72 | 2.0 | 4.0 | 0.00 | 0.00 | 0.00 | 79 | 1014.7 |
| 20260831163404 | 67 | 72 | 2.0 | 4.0 | 0.00 | 0.00 | 0.00 | 79 | 1014.6 |
| 20260831163303 | 67 | 75 | 2.0 | 4.0 | 0.00 | 0.00 | 0.00 | 79 | 1014.8 |
| 20260831163203 | 67 | 74 | 2.0 | 4.0 | 0.00 | 0.00 | 0.00 | 78 | 1014.7 |
| 20260831163103 | 67 | 82 | 2.0 | 4.0 | 0.00 | 0.00 | 0.00 | 77 | 1014.6 |
| 20260831163018 | 68 | 101 | 3.0 | 4.0 | 0.00 | 0.00 | 0.00 | 77 | 1014.8 |
| 20260831163003 | 68 | 105 | 3.0 | 4.0 | 0.00 | 0.00 | 0.00 | 77 | 1014.8 |
| 20260831162903 | 68 | 93 | 1.0 | 6.0 | 0.00 | 0.00 | 0.00 | 77 | 1014.7 |
| 20260831162718 | 69 | 89 | 0.0 | 6.0 | 0.00 | 0.00 | 0.00 | 77 | 1015.0 |
| 20260831162703 | 68 | 90 | 0.0 | 6.0 | 0.00 | 0.00 | 0.00 | 77 | 1014.8 |
| 20260831162603 | 68 | 86 | 1.0 | 6.0 | 0.00 | 0.00 | 0.00 | 77 | 1014.7 |
| 20260831162517 | 68 | 75 | 3.0 | 6.0 | 0.00 | 0.00 | 0.00 | 77 | 1014.5 |
| 20260831162403 | 68 | 334 | 4.0 | 6.0 | 0.00 | 0.00 | 0.00 | 77 | 1015.0 |
| 20260831162319 | 69 | 278 | 0.0 | 2.0 | 0.00 | 0.00 | 0.00 | 77 | 1014.9 |
| 20260831162203 | 68 | 286 | 0.0 | 2.0 | 0.00 | 0.00 | 0.00 | 78 | 1014.7 |
| 20260831162003 | 67 | 283 | 1.0 | 2.0 | 0.00 | 0.00 | 0.00 | 79 | 1014.9 |
| 20260831161903 | 67 | 274 | 1.0 | 2.0 | 0.00 | 0.00 | 0.00 | 79 | 1015.0 |
| 20260831161803 | 67 | 264 | 1.0 | 2.0 | 0.00 | 0.00 | 0.00 | 79 | 1014.7 |
| 20260831161703 | 67 | 258 | 2.0 | 2.0 | 0.00 | 0.00 | 0.00 | 79 | 1014.7 |
| 20260831161603 | 67 | 254 | 2.0 | 2.0 | 0.00 | 0.00 | 0.00 | 79 | 1014.7 |
| 20260831161503 | 67 | 261 | 1.0 | 2.0 | 0.00 | 0.00 | 0.00 | 79 | 1014.9 |
| 20260831161403 | 67 | 278 | 2.0 | 2.0 | 0.00 | 0.00 | 0.00 | 78 | 1014.8 |
| 20260831161316 | 67 | 290 | 2.0 | 2.0 | 0.00 | 0.00 | 0.00 | 78 | 1014.8 |
| 20260831161303 | 67 | 295 | 2.0 | 2.0 | 0.00 | 0.00 | 0.00 | 78 | 1014.8 |
| 20260831161203 | 68 | 300 | 0.0 | 2.0 | 0.00 | 0.00 | 0.00 | 78 | 1014.8 |
| 20260831161018 | 67 | 270 | 0.0 | 2.0 | 0.00 | 0.00 | 0.00 | 80 | 1014.9 |
| 20260831161003 | 67 | 269 | 0.0 | 2.0 | 0.00 | 0.00 | 0.00 | 80 | 1014.9 |
| 20260831160917 | 66 | 264 | 0.0 | 2.0 | 0.00 | 0.00 | 0.00 | 80 | 1015.0 |
| 20260831160903 | 66 | 261 | 0.0 | 2.0 | 0.00 | 0.00 | 0.00 | 80 | 1015.0 |
| 20260831160603 | 66 | 247 | 0.0 | 2.0 | 0.00 | 0.00 | 0.00 | 80 | 1014.9 |
| 20260831160503 | 66 | 274 | 0.0 | 2.0 | 0.00 | 0.00 | 0.00 | 81 | 1014.7 |
| 20260831160403 | 66 | 294 | 0.0 | 2.0 | 0.00 | 0.00 | 0.00 | 81 | 1014.9 |
| 20260831160303 | 65 | 54 | 2.0 | 2.0 | 0.00 | 0.00 | 0.00 | 81 | 1014.7 |
| 20260831160203 | 65 | 73 | 1.0 | 2.0 | 0.00 | 0.00 | 0.00 | 81 | 1014.7 |
| 20260831160103 | 65 | 66 | 0.0 | 2.0 | 0.00 | 0.00 | 0.00 | 81 | 1014.9 |
| 20260831160003 | 65 | 66 | 1.0 | 2.0 | 0.00 | 0.00 | 0.00 | 81 | 1014.9 |
| 20260831155903 | 65 | 78 | 1.0 | 4.0 | 0.00 | 0.00 | 0.00 | 81 | 1015.0 |
| 20260831155803 | 66 | 71 | 0.0 | 4.0 | 0.00 | 0.00 | 0.00 | 81 | 1015.0 |
| 20260831155703 | 65 | 82 | 1.0 | 4.0 | 0.00 | 0.00 | 0.00 | 81 | 1015.1 |
| 20260831155603 | 65 | 88 | 2.0 | 4.0 | 0.00 | 0.00 | 0.00 | 82 | 1014.8 |
| 20260831155503 | 65 | 101 | 1.0 | 4.0 | 0.00 | 0.00 | 0.00 | 82 | 1015.0 |
| 20260831155403 | 65 | 89 | 2.0 | 4.0 | 0.00 | 0.00 | 0.00 | 82 | 1014.9 |
| 20260831155306 | 65 | 83 | 0.0 | 4.0 | 0.00 | 0.00 | 0.00 | 82 | 1014.9 |
| 20260831155203 | 65 | 80 | 1.0 | 4.0 | 0.00 | 0.00 | 0.00 | 82 | 1015.0 |
| 20260831155103 | 65 | 79 | 1.0 | 4.0 | 0.00 | 0.00 | 0.00 | 82 | 1014.9 |
| 20260831155018 | 64 | 78 | 2.0 | 6.0 | 0.00 | 0.00 | 0.00 | 81 | 1014.9 |
| 20260831155003 | 64 | 79 | 2.0 | 6.0 | 0.00 | 0.00 | 0.00 | 81 | 1014.9 |
| 20260831154917 | 65 | 82 | 2.0 | 6.0 | 0.00 | 0.00 | 0.00 | 82 | 1014.8 |
| 20260831154903 | 65 | 84 | 2.0 | 6.0 | 0.00 | 0.00 | 0.00 | 82 | 1014.8 |
| 20260831154817 | 65 | 88 | 2.0 | 6.0 | 0.00 | 0.00 | 0.00 | 82 | 1014.6 |
| 20260831154503 | 64 | 84 | 3.0 | 6.0 | 0.00 | 0.00 | 0.00 | 81 | 1015.0 |
| 20260831154403 | 65 | 83 | 3.0 | 6.0 | 0.00 | 0.00 | 0.00 | 81 | 1014.8 |
| 20260831154318 | 65 | 73 | 2.0 | 4.0 | 0.00 | 0.00 | 0.00 | 80 | 1014.9 |
| 20260831154303 | 65 | 70 | 1.0 | 2.0 | 0.00 | 0.00 | 0.00 | 80 | 1014.9 |
| 20260831154203 | 65 | 92 | 1.0 | 4.0 | 0.00 | 0.00 | 0.00 | 80 | 1014.7 |
| 20260831154003 | 66 | 95 | 1.0 | 4.0 | 0.00 | 0.00 | 0.00 | 81 | 1014.7 |
| 20260831153903 | 66 | 90 | 0.0 | 4.0 | 0.00 | 0.00 | 0.00 | 81 | 1014.8 |
| 20260831153803 | 66 | 80 | 0.0 | 4.0 | 0.00 | 0.00 | 0.00 | 82 | 1014.7 |
| 20260831153703 | 65 | 66 | 2.0 | 4.0 | 0.00 | 0.00 | 0.00 | 81 | 1014.7 |
| 20260831153603 | 65 | 56 | 0.0 | 4.0 | 0.00 | 0.00 | 0.00 | 82 | 1014.5 |
| 20260831153503 | 64 | 61 | 2.0 | 4.0 | 0.00 | 0.00 | 0.00 | 82 | 1014.6 |
| 20260831153403 | 65 | 60 | 2.0 | 4.0 | 0.00 | 0.00 | 0.00 | 82 | 1014.5 |
| 20260831153318 | 65 | 69 | 2.0 | 4.0 | 0.00 | 0.00 | 0.00 | 82 | 1014.6 |
| 20260831153303 | 65 | 76 | 2.0 | 4.0 | 0.00 | 0.00 | 0.00 | 82 | 1014.6 |
| 20260831153203 | 65 | 96 | 1.0 | 4.0 | 0.00 | 0.00 | 0.00 | 83 | 1014.5 |
| 20260831153003 | 64 | 88 | 1.0 | 9.0 | 0.00 | 0.00 | 0.00 | 84 | 1014.4 |
| 20260831152903 | 63 | 96 | 0.0 | 9.0 | 0.00 | 0.00 | 0.00 | 84 | 1014.5 |
| 20260831152803 | 63 | 88 | 2.0 | 9.0 | 0.00 | 0.00 | 0.00 | 84 | 1014.6 |
| 20260831152703 | 63 | 81 | 2.0 | 9.0 | 0.00 | 0.00 | 0.00 | 84 | 1014.4 |
| 20260831152603 | 63 | 86 | 3.0 | 9.0 | 0.00 | 0.00 | 0.00 | 84 | 1014.6 |
| 20260831152503 | 62 | 80 | 7.0 | 9.0 | 0.00 | 0.00 | 0.00 | 83 | 1014.6 |
| 20260831152403 | 63 | 80 | 4.0 | 8.0 | 0.00 | 0.00 | 0.00 | 83 | 1014.4 |
| 20260831152306 | 64 | 83 | 2.0 | 6.0 | 0.00 | 0.00 | 0.00 | 84 | 1014.5 |
| 20260831152203 | 63 | 79 | 2.0 | 6.0 | 0.00 | 0.00 | 0.00 | 84 | 1014.5 |
| 20260831152103 | 63 | 66 | 2.0 | 6.0 | 0.00 | 0.00 | 0.00 | 84 | 1014.6 |
| 20260831152003 | 63 | 58 | 2.0 | 9.0 | 0.00 | 0.00 | 0.00 | 84 | 1014.6 |
| 20260831151903 | 63 | 48 | 3.0 | 9.0 | 0.00 | 0.00 | 0.00 | 84 | 1014.4 |
| 20260831151803 | 63 | 36 | 3.0 | 9.0 | 0.00 | 0.00 | 0.00 | 84 | 1014.5 |
| 20260831151703 | 63 | 39 | 2.0 | 9.0 | 0.00 | 0.00 | 0.00 | 84 | 1014.6 |
| 20260831151603 | 62 | 41 | 2.0 | 9.0 | 0.00 | 0.00 | 0.00 | 84 | 1014.6 |
| 20260831151503 | 63 | 47 | 2.0 | 7.0 | 0.00 | 0.00 | 0.00 | 84 | 1014.5 |
| 20260831151403 | 63 | 55 | 3.0 | 7.0 | 0.00 | 0.00 | 0.00 | 84 | 1014.7 |
| 20260831151303 | 63 | 72 | 3.0 | 7.0 | 0.00 | 0.00 | 0.00 | 84 | 1014.6 |
| 20260831151203 | 63 | 82 | 3.0 | 7.0 | 0.00 | 0.00 | 0.00 | 83 | 1014.5 |
| 20260831151103 | 63 | 101 | 2.0 | 7.0 | 0.00 | 0.00 | 0.00 | 83 | 1014.5 |
| 20260831151018 | 63 | 104 | 2.0 | 7.0 | 0.00 | 0.00 | 0.00 | 83 | 1014.5 |
| 20260831151003 | 63 | 101 | 2.0 | 7.0 | 0.00 | 0.00 | 0.00 | 83 | 1014.5 |
| 20260831150903 | 63 | 98 | 2.0 | 7.0 | 0.00 | 0.00 | 0.00 | 83 | 1014.5 |
| 20260831150703 | 63 | 104 | 3.0 | 7.0 | 0.00 | 0.00 | 0.00 | 82 | 1014.3 |
| 20260831150603 | 63 | 102 | 3.0 | 7.0 | 0.00 | 0.00 | 0.00 | 82 | 1014.6 |
| 20260831150517 | 64 | 113 | 2.0 | 7.0 | 0.00 | 0.00 | 0.00 | 82 | 1014.6 |
| 20260831150503 | 64 | 119 | 2.0 | 7.0 | 0.00 | 0.00 | 0.00 | 82 | 1014.6 |
| 20260831150404 | 64 | 122 | 3.0 | 7.0 | 0.00 | 0.00 | 0.00 | 82 | 1014.3 |
| 20260831150203 | 64 | 133 | 2.0 | 7.0 | 0.00 | 0.00 | 0.00 | 82 | 1014.3 |
| 20260831150117 | 64 | 130 | 2.0 | 7.0 | 0.00 | 0.00 | 0.00 | 82 | 1014.5 |
| 20260831150103 | 64 | 123 | 2.0 | 7.0 | 0.00 | 0.00 | 0.00 | 82 | 1014.5 |
| 20260831150003 | 64 | 129 | 3.0 | 7.0 | 0.00 | 0.00 | 0.00 | 82 | 1014.3 |
| 20260831145803 | 64 | 143 | 2.0 | 6.0 | 0.00 | 0.00 | 0.00 | 82 | 1014.4 |
| 20260831145703 | 64 | 103 | 2.0 | 6.0 | 0.00 | 0.00 | 0.00 | 82 | 1014.5 |
| 20260831145603 | 64 | 73 | 2.0 | 4.0 | 0.00 | 0.00 | 0.00 | 82 | 1014.4 |
| 20260831145503 | 64 | 69 | 1.0 | 4.0 | 0.00 | 0.00 | 0.00 | 82 | 1014.3 |
| 20260831145403 | 64 | 78 | 3.0 | 4.0 | 0.00 | 0.00 | 0.00 | 82 | 1014.3 |
| 20260831145306 | 64 | 45 | 2.0 | 4.0 | 0.00 | 0.00 | 0.00 | 82 | 1014.3 |
| 20260831145203 | 64 | 63 | 2.0 | 4.0 | 0.00 | 0.00 | 0.00 | 83 | 1014.4 |
| 20260831145103 | 64 | 99 | 2.0 | 6.0 | 0.00 | 0.00 | 0.00 | 83 | 1014.3 |
| 20260831145003 | 64 | 113 | 2.0 | 6.0 | 0.00 | 0.00 | 0.00 | 83 | 1014.3 |
| 20260831144903 | 64 | 131 | 1.0 | 6.0 | 0.00 | 0.00 | 0.00 | 84 | 1014.3 |
| 20260831144820 | 64 | 135 | 1.0 | 6.0 | 0.00 | 0.00 | 0.00 | 84 | 1014.3 |
| 20260831144803 | 64 | 136 | 1.0 | 6.0 | 0.00 | 0.00 | 0.00 | 84 | 1014.3 |
| 20260831144703 | 63 | 159 | 3.0 | 6.0 | 0.00 | 0.00 | 0.00 | 84 | 1014.4 |
| 20260831144503 | 63 | 209 | 2.0 | 4.0 | 0.00 | 0.00 | 0.00 | 84 | 1014.4 |
| 20260831144403 | 63 | 199 | 2.0 | 4.0 | 0.00 | 0.00 | 0.00 | 84 | 1014.2 |
| 20260831144303 | 63 | 208 | 2.0 | 4.0 | 0.00 | 0.00 | 0.00 | 84 | 1014.3 |
| 20260831144203 | 63 | 212 | 2.0 | 6.0 | 0.00 | 0.00 | 0.00 | 84 | 1014.5 |
| 20260831144117 | 63 | 202 | 3.0 | 6.0 | 0.00 | 0.00 | 0.00 | 84 | 1014.3 |
| 20260831144103 | 63 | 190 | 3.0 | 6.0 | 0.00 | 0.00 | 0.00 | 84 | 1014.3 |
| 20260831144003 | 63 | 203 | 2.0 | 6.0 | 0.00 | 0.00 | 0.00 | 84 | 1014.3 |
| 20260831143803 | 63 | 166 | 2.0 | 6.0 | 0.00 | 0.00 | 0.00 | 85 | 1014.2 |
| 20260831143717 | 63 | 139 | 2.0 | 6.0 | 0.00 | 0.00 | 0.00 | 85 | 1014.2 |
| 20260831143703 | 63 | 131 | 2.0 | 6.0 | 0.00 | 0.00 | 0.00 | 85 | 1014.2 |
| 20260831143603 | 63 | 129 | 2.0 | 4.0 | 0.00 | 0.00 | 0.00 | 85 | 1014.3 |
| 20260831143403 | 62 | 102 | 2.0 | 7.0 | 0.00 | 0.00 | 0.00 | 86 | 1014.4 |
| 20260831143303 | 62 | 101 | 3.0 | 7.0 | 0.00 | 0.00 | 0.00 | 86 | 1014.3 |
| 20260831143203 | 62 | 107 | 3.0 | 7.0 | 0.00 | 0.00 | 0.00 | 86 | 1014.0 |
| 20260831143103 | 62 | 90 | 1.0 | 7.0 | 0.00 | 0.00 | 0.00 | 86 | 1013.9 |
| 20260831143003 | 62 | 78 | 4.0 | 7.0 | 0.00 | 0.00 | 0.00 | 86 | 1014.2 |
| 20260831142918 | 63 | 91 | 0.0 | 7.0 | 0.00 | 0.00 | 0.00 | 87 | 1014.2 |
| 20260831142903 | 63 | 94 | 0.0 | 7.0 | 0.00 | 0.00 | 0.00 | 87 | 1014.2 |
| 20260831142817 | 62 | 94 | 1.0 | 7.0 | 0.00 | 0.00 | 0.00 | 88 | 1014.3 |
| 20260831142803 | 62 | 92 | 1.0 | 7.0 | 0.00 | 0.00 | 0.00 | 88 | 1014.3 |
| 20260831142503 | 62 | 129 | 1.0 | 6.0 | 0.00 | 0.00 | 0.00 | 89 | 1014.1 |
| 20260831142403 | 62 | 96 | 1.0 | 7.0 | 0.00 | 0.00 | 0.00 | 89 | 1014.0 |
| 20260831142305 | 61 | 130 | 0.0 | 8.0 | 0.00 | 0.00 | 0.00 | 90 | 1014.2 |
| 20260831142203 | 61 | 129 | 2.0 | 8.0 | 0.00 | 0.00 | 0.00 | 90 | 1014.1 |
| 20260831142103 | 60 | 121 | 2.0 | 8.0 | 0.00 | 0.00 | 0.00 | 89 | 1014.2 |
| 20260831142003 | 61 | 113 | 3.0 | 8.0 | 0.00 | 0.00 | 0.00 | 90 | 1014.2 |
| 20260831141903 | 61 | 124 | 2.0 | 8.0 | 0.00 | 0.00 | 0.00 | 90 | 1014.4 |
| 20260831141817 | 61 | 102 | 0.0 | 4.0 | 0.00 | 0.00 | 0.00 | 91 | 1014.1 |
| 20260831141803 | 61 | 101 | 0.0 | 4.0 | 0.00 | 0.00 | 0.00 | 91 | 1014.1 |
| 20260831141705 | 60 | 99 | 0.0 | 4.0 | 0.00 | 0.00 | 0.00 | 91 | 1014.1 |
| 20260831141618 | 60 | 92 | 2.0 | 6.0 | 0.00 | 0.00 | 0.00 | 91 | 1014.2 |
| 20260831141503 | 60 | 86 | 2.0 | 6.0 | 0.00 | 0.00 | 0.00 | 91 | 1014.1 |
| 20260831141303 | 60 | 84 | 2.0 | 6.0 | 0.00 | 0.00 | 0.00 | 91 | 1014.2 |
| 20260831141203 | 60 | 83 | 2.0 | 6.0 | 0.00 | 0.00 | 0.00 | 92 | 1014.3 |
| 20260831141103 | 60 | 87 | 3.0 | 4.0 | 0.00 | 0.00 | 0.00 | 92 | 1014.3 |
| 20260831141003 | 60 | 91 | 1.0 | 4.0 | 0.00 | 0.00 | 0.00 | 92 | 1014.2 |
| 20260831140918 | 60 | 99 | 0.0 | 4.0 | 0.00 | 0.00 | 0.00 | 92 | 1014.2 |
| 20260831140903 | 60 | 103 | 0.0 | 4.0 | 0.00 | 0.00 | 0.00 | 92 | 1014.2 |
| 20260831140803 | 60 | 102 | 0.0 | 4.0 | 0.00 | 0.00 | 0.00 | 92 | 1014.2 |
| 20260831140603 | 59 | 139 | 2.0 | 4.0 | 0.00 | 0.00 | 0.00 | 93 | 1014.2 |
| 20260831140503 | 60 | 142 | 1.0 | 4.0 | 0.00 | 0.00 | 0.00 | 93 | 1014.3 |
| 20260831140403 | 59 | 146 | 0.0 | 4.0 | 0.00 | 0.00 | 0.00 | 93 | 1014.2 |
| 20260831140303 | 59 | 144 | 2.0 | 4.0 | 0.00 | 0.00 | 0.00 | 93 | 1014.4 |
| 20260831140218 | 59 | 144 | 1.0 | 4.0 | 0.00 | 0.00 | 0.00 | 93 | 1014.3 |
| 20260831140203 | 59 | 140 | 1.0 | 4.0 | 0.00 | 0.00 | 0.00 | 93 | 1014.3 |
| 20260831135903 | 59 | 101 | 1.0 | 7.0 | 0.00 | 0.00 | 0.00 | 94 | 1014.5 |
| 20260831135816 | 59 | 100 | 2.0 | 7.0 | 0.00 | 0.00 | 0.00 | 94 | 1014.3 |
| 20260831135803 | 59 | 98 | 2.0 | 7.0 | 0.00 | 0.00 | 0.00 | 94 | 1014.3 |
| 20260831135703 | 59 | 86 | 1.0 | 7.0 | 0.00 | 0.00 | 0.00 | 94 | 1014.4 |
| 20260831135503 | 58 | 82 | 3.0 | 7.0 | 0.00 | 0.00 | 0.00 | 94 | 1014.3 |
| 20260831135405 | 58 | 83 | 4.0 | 7.0 | 0.00 | 0.00 | 0.00 | 94 | 1014.3 |
| 20260831135306 | 58 | 67 | 2.0 | 6.0 | 0.00 | 0.00 | 0.00 | 94 | 1014.2 |
| 20260831135203 | 58 | 92 | 2.0 | 7.0 | 0.00 | 0.00 | 0.00 | 94 | 1014.4 |
| 20260831135103 | 59 | 88 | 2.0 | 7.0 | 0.00 | 0.00 | 0.00 | 94 | 1014.4 |
| 20260831135003 | 59 | 102 | 1.0 | 8.0 | 0.00 | 0.00 | 0.00 | 95 | 1014.2 |
| 20260831134903 | 59 | 107 | 0.0 | 8.0 | 0.00 | 0.00 | 0.00 | 95 | 1014.4 |
| 20260831134803 | 58 | 109 | 1.0 | 8.0 | 0.00 | 0.00 | 0.00 | 95 | 1014.4 |
| 20260831134703 | 58 | 97 | 3.0 | 8.0 | 0.00 | 0.00 | 0.00 | 95 | 1014.3 |
| 20260831134605 | 58 | 98 | 2.0 | 8.0 | 0.00 | 0.00 | 0.00 | 95 | 1014.3 |
| 20260831134503 | 58 | 93 | 5.0 | 8.0 | 0.00 | 0.00 | 0.00 | 95 | 1014.1 |
| 20260831134403 | 58 | 95 | 4.0 | 8.0 | 0.00 | 0.00 | 0.00 | 95 | 1014.2 |
| 20260831134318 | 58 | 93 | 2.0 | 8.0 | 0.00 | 0.00 | 0.00 | 95 | 1014.2 |
| 20260831134303 | 58 | 91 | 2.0 | 8.0 | 0.00 | 0.00 | 0.00 | 95 | 1014.1 |
| 20260831134205 | 58 | 95 | 2.0 | 4.0 | 0.00 | 0.00 | 0.00 | 95 | 1014.2 |
| 20260831134117 | 58 | 91 | 2.0 | 4.0 | 0.00 | 0.00 | 0.00 | 95 | 1014.0 |
| 20260831134003 | 58 | 99 | 2.0 | 7.0 | 0.00 | 0.00 | 0.00 | 95 | 1014.1 |
| 20260831133803 | 58 | 95 | 2.0 | 9.0 | 0.00 | 0.00 | 0.00 | 95 | 1014.0 |
| 20260831133718 | 58 | 95 | 1.0 | 9.0 | 0.00 | 0.00 | 0.00 | 95 | 1014.2 |
| 20260831133703 | 58 | 91 | 1.0 | 9.0 | 0.00 | 0.00 | 0.00 | 95 | 1014.2 |
| 20260831133605 | 58 | 70 | 1.0 | 9.0 | 0.00 | 0.00 | 0.00 | 95 | 1014.2 |
| 20260831133404 | 58 | 21 | 4.0 | 9.0 | 0.00 | 0.00 | 0.00 | 96 | 1014.2 |
| 20260831133303 | 58 | 37 | 4.0 | 7.0 | 0.00 | 0.00 | 0.00 | 96 | 1013.9 |
| 20260831133218 | 58 | 45 | 2.0 | 4.0 | 0.00 | 0.00 | 0.00 | 96 | 1014.1 |
| 20260831133205 | 58 | 56 | 2.0 | 4.0 | 0.00 | 0.00 | 0.00 | 96 | 1014.1 |
| 20260831133105 | 58 | 65 | 2.0 | 4.0 | 0.00 | 0.00 | 0.00 | 96 | 1014.1 |
| 20260831132903 | 58 | 72 | 2.0 | 8.0 | 0.00 | 0.00 | 0.00 | 96 | 1013.9 |
| 20260831132805 | 58 | 70 | 3.0 | 8.0 | 0.00 | 0.00 | 0.00 | 96 | 1013.9 |
| 20260831132703 | 58 | 80 | 2.0 | 8.0 | 0.00 | 0.00 | 0.00 | 96 | 1013.9 |
| 20260831132603 | 58 | 93 | 3.0 | 8.0 | 0.00 | 0.00 | 0.00 | 96 | 1013.9 |
| 20260831132518 | 58 | 93 | 2.0 | 8.0 | 0.00 | 0.00 | 0.00 | 96 | 1014.2 |
| 20260831132503 | 58 | 92 | 2.0 | 8.0 | 0.00 | 0.00 | 0.00 | 96 | 1014.2 |
| 20260831132417 | 58 | 102 | 5.0 | 8.0 | 0.00 | 0.00 | 0.00 | 96 | 1014.1 |
| 20260831132403 | 58 | 106 | 5.0 | 8.0 | 0.00 | 0.00 | 0.00 | 96 | 1014.1 |
| 20260831132103 | 58 | 109 | 0.0 | 7.0 | 0.00 | 0.00 | 0.00 | 96 | 1014.1 |
| 20260831132003 | 58 | 114 | 2.0 | 7.0 | 0.00 | 0.00 | 0.00 | 96 | 1013.9 |
| 20260831131903 | 58 | 108 | 3.0 | 9.0 | 0.00 | 0.00 | 0.00 | 96 | 1013.9 |
| 20260831131803 | 58 | 111 | 3.0 | 9.0 | 0.00 | 0.00 | 0.00 | 96 | 1014.0 |
| 20260831131703 | 58 | 109 | 3.0 | 9.0 | 0.00 | 0.00 | 0.00 | 96 | 1014.0 |
| 20260831131603 | 58 | 105 | 2.0 | 9.0 | 0.00 | 0.00 | 0.00 | 96 | 1014.0 |
| 20260831131503 | 57 | 105 | 4.0 | 9.0 | 0.00 | 0.00 | 0.00 | 96 | 1014.0 |
| 20260831131403 | 58 | 105 | 4.0 | 9.0 | 0.00 | 0.00 | 0.00 | 96 | 1013.9 |
| 20260831131303 | 58 | 102 | 6.0 | 9.0 | 0.00 | 0.00 | 0.00 | 96 | 1013.9 |
| 20260831131203 | 58 | 94 | 2.0 | 8.0 | 0.00 | 0.00 | 0.00 | 97 | 1014.1 |
| 20260831131104 | 58 | 90 | 3.0 | 7.0 | 0.00 | 0.00 | 0.00 | 97 | 1014.0 |
| 20260831131003 | 58 | 88 | 3.0 | 8.0 | 0.00 | 0.00 | 0.00 | 97 | 1014.0 |
| 20260831130903 | 58 | 93 | 2.0 | 8.0 | 0.00 | 0.00 | 0.00 | 97 | 1013.9 |
| 20260831130803 | 58 | 77 | 2.0 | 9.0 | 0.00 | 0.00 | 0.00 | 97 | 1014.0 |
| 20260831130703 | 58 | 87 | 3.0 | 9.0 | 0.00 | 0.00 | 0.00 | 97 | 1014.0 |
| 20260831130603 | 58 | 94 | 3.0 | 9.0 | 0.00 | 0.00 | 0.00 | 97 | 1013.9 |
| 20260831130503 | 58 | 95 | 4.0 | 9.0 | 0.00 | 0.00 | 0.00 | 97 | 1013.9 |
| 20260831130403 | 58 | 86 | 2.0 | 9.0 | 0.00 | 0.00 | 0.00 | 97 | 1014.0 |
| 20260831130317 | 58 | 90 | 4.0 | 9.0 | 0.00 | 0.00 | 0.00 | 97 | 1013.7 |
| 20260831130303 | 58 | 93 | 3.0 | 8.0 | 0.00 | 0.00 | 0.00 | 97 | 1014.1 |
| 20260831130203 | 58 | 78 | 3.0 | 7.0 | 0.00 | 0.00 | 0.00 | 97 | 1013.9 |
| 20260831130004 | 58 | 62 | 2.0 | 7.0 | 0.00 | 0.00 | 0.00 | 97 | 1013.8 |
| 20260831125918 | 58 | 73 | 3.0 | 7.0 | 0.00 | 0.00 | 0.00 | 97 | 1014.0 |
| 20260831125903 | 58 | 75 | 2.0 | 7.0 | 0.00 | 0.00 | 0.00 | 97 | 1014.0 |
| 20260831125803 | 58 | 80 | 4.0 | 7.0 | 0.00 | 0.00 | 0.00 | 97 | 1013.7 |
| 20260831125603 | 58 | 93 | 2.0 | 7.0 | 0.00 | 0.00 | 0.00 | 97 | 1013.7 |
| 20260831125503 | 58 | 92 | 2.0 | 7.0 | 0.00 | 0.00 | 0.00 | 97 | 1013.8 |
| 20260831125403 | 58 | 73 | 3.0 | 7.0 | 0.00 | 0.00 | 0.00 | 97 | 1013.8 |
| 20260831125306 | 58 | 72 | 3.0 | 7.0 | 0.00 | 0.00 | 0.00 | 97 | 1013.7 |
| 20260831125203 | 58 | 73 | 3.0 | 7.0 | 0.00 | 0.00 | 0.00 | 97 | 1013.8 |
| 20260831125103 | 58 | 74 | 2.0 | 9.0 | 0.00 | 0.00 | 0.00 | 97 | 1013.8 |
| 20260831125003 | 58 | 80 | 2.0 | 9.0 | 0.00 | 0.00 | 0.00 | 97 | 1013.8 |
| 20260831124918 | 58 | 84 | 3.0 | 9.0 | 0.00 | 0.00 | 0.00 | 97 | 1013.6 |
| 20260831124903 | 58 | 86 | 3.0 | 9.0 | 0.00 | 0.00 | 0.00 | 97 | 1013.6 |
| 20260831124803 | 58 | 92 | 2.0 | 9.0 | 0.00 | 0.00 | 0.00 | 97 | 1013.5 |
| 20260831124603 | 58 | 98 | 4.0 | 9.0 | 0.00 | 0.00 | 0.00 | 98 | 1014.0 |
| 20260831124503 | 58 | 105 | 2.0 | 6.0 | 0.00 | 0.00 | 0.00 | 98 | 1013.8 |
| 20260831124403 | 58 | 100 | 2.0 | 6.0 | 0.00 | 0.00 | 0.00 | 98 | 1013.8 |
| 20260831124203 | 58 | 85 | 2.0 | 6.0 | 0.00 | 0.00 | 0.00 | 98 | 1013.8 |
| 20260831124103 | 58 | 77 | 2.0 | 6.0 | 0.00 | 0.00 | 0.00 | 98 | 1013.9 |
| 20260831124003 | 58 | 69 | 2.0 | 4.0 | 0.00 | 0.00 | 0.00 | 98 | 1014.0 |
| 20260831123903 | 58 | 78 | 3.0 | 6.0 | 0.00 | 0.00 | 0.00 | 98 | 1013.9 |
| 20260831123803 | 58 | 85 | 1.0 | 6.0 | 0.00 | 0.00 | 0.00 | 98 | 1014.0 |
| 20260831123703 | 58 | 94 | 1.0 | 6.0 | 0.00 | 0.00 | 0.00 | 98 | 1014.1 |
| 20260831123603 | 58 | 96 | 1.0 | 6.0 | 0.00 | 0.00 | 0.00 | 98 | 1014.1 |
| 20260831123503 | 58 | 102 | 3.0 | 7.0 | 0.00 | 0.00 | 0.00 | 98 | 1014.0 |
| 20260831123403 | 58 | 94 | 1.0 | 7.0 | 0.00 | 0.00 | 0.00 | 98 | 1013.9 |
| 20260831123317 | 58 | 90 | 2.0 | 7.0 | 0.00 | 0.00 | 0.00 | 98 | 1014.0 |
| 20260831123303 | 58 | 88 | 2.0 | 7.0 | 0.00 | 0.00 | 0.00 | 98 | 1014.0 |
| 20260831123203 | 58 | 95 | 2.0 | 7.0 | 0.00 | 0.00 | 0.00 | 98 | 1014.3 |
| 20260831123003 | 58 | 69 | 3.0 | 8.0 | 0.00 | 0.00 | 0.00 | 98 | 1013.8 |
| 20260831122903 | 58 | 80 | 4.0 | 8.0 | 0.00 | 0.00 | 0.00 | 98 | 1014.0 |
| 20260831122803 | 58 | 77 | 2.0 | 8.0 | 0.00 | 0.00 | 0.00 | 98 | 1013.8 |
| 20260831122703 | 57 | 63 | 5.0 | 8.0 | 0.00 | 0.00 | 0.00 | 98 | 1013.9 |
| 20260831122603 | 58 | 76 | 4.0 | 7.0 | 0.00 | 0.00 | 0.00 | 98 | 1013.8 |
| 20260831122503 | 58 | 87 | 2.0 | 7.0 | 0.00 | 0.00 | 0.00 | 98 | 1014.0 |
| 20260831122403 | 58 | 74 | 2.0 | 7.0 | 0.00 | 0.00 | 0.00 | 98 | 1013.7 |
| 20260831122305 | 58 | 64 | 3.0 | 7.0 | 0.00 | 0.00 | 0.00 | 98 | 1013.7 |
| 20260831122203 | 57 | 58 | 3.0 | 7.0 | 0.00 | 0.00 | 0.00 | 98 | 1013.9 |
| 20260831122103 | 57 | 39 | 3.0 | 7.0 | 0.00 | 0.00 | 0.00 | 98 | 1013.8 |
| 20260831122017 | 57 | 40 | 2.0 | 7.0 | 0.00 | 0.00 | 0.00 | 98 | 1013.8 |
| 20260831122003 | 57 | 42 | 2.0 | 7.0 | 0.00 | 0.00 | 0.00 | 98 | 1013.8 |
| 20260831121903 | 57 | 43 | 3.0 | 7.0 | 0.00 | 0.00 | 0.00 | 98 | 1013.8 |
| 20260831121703 | 57 | 67 | 2.0 | 7.0 | 0.00 | 0.00 | 0.00 | 98 | 1013.8 |
| 20260831121603 | 57 | 74 | 2.0 | 7.0 | 0.00 | 0.00 | 0.00 | 98 | 1013.8 |
| 20260831121518 | 57 | 65 | 4.0 | 7.0 | 0.00 | 0.00 | 0.00 | 98 | 1013.7 |
| 20260831121503 | 57 | 64 | 2.0 | 7.0 | 0.00 | 0.00 | 0.00 | 98 | 1013.8 |
| 20260831121403 | 57 | 59 | 2.0 | 7.0 | 0.00 | 0.00 | 0.00 | 98 | 1013.8 |
| 20260831121317 | 57 | 57 | 2.0 | 7.0 | 0.00 | 0.00 | 0.00 | 98 | 1013.8 |
| 20260831121203 | 57 | 52 | 3.0 | 8.0 | 0.00 | 0.00 | 0.00 | 98 | 1013.7 |
| 20260831121003 | 57 | 109 | 4.0 | 14.0 | 0.00 | 0.00 | 0.00 | 98 | 1013.8 |
| 20260831120903 | 57 | 109 | 3.0 | 14.0 | 0.00 | 0.00 | 0.00 | 98 | 1014.0 |
| 20260831120803 | 57 | 102 | 4.0 | 14.0 | 0.00 | 0.00 | 0.00 | 98 | 1013.7 |
| 20260831120703 | 57 | 106 | 4.0 | 14.0 | 0.00 | 0.00 | 0.00 | 98 | 1013.4 |
| 20260831120603 | 57 | 85 | 6.0 | 14.0 | 0.00 | 0.00 | 0.00 | 98 | 1013.6 |
| 20260831120503 | 57 | 78 | 4.0 | 11.0 | 0.00 | 0.00 | 0.00 | 98 | 1013.7 |
| 20260831120403 | 57 | 75 | 5.0 | 11.0 | 0.00 | 0.00 | 0.00 | 98 | 1013.6 |
| 20260831120303 | 57 | 88 | 4.0 | 11.0 | 0.00 | 0.00 | 0.00 | 98 | 1013.8 |
| 20260831120203 | 57 | 95 | 5.0 | 11.0 | 0.00 | 0.00 | 0.00 | 98 | 1013.9 |
| 20260831120103 | 57 | 96 | 3.0 | 11.0 | 0.00 | 0.00 | 0.00 | 98 | 1013.8 |
| 20260831120004 | 57 | 90 | 4.0 | 11.0 | 0.00 | 0.00 | 0.00 | 98 | 1013.7 |
| 20260831115903 | 57 | 84 | 4.0 | 11.0 | 0.00 | 0.00 | 0.00 | 98 | 1013.6 |
| 20260831115803 | 57 | 61 | 6.0 | 11.0 | 0.00 | 0.00 | 0.00 | 98 | 1013.5 |
| 20260831115717 | 57 | 52 | 4.0 | 11.0 | 0.00 | 0.00 | 0.00 | 98 | 1013.6 |
| 20260831115703 | 57 | 50 | 4.0 | 11.0 | 0.00 | 0.00 | 0.00 | 98 | 1013.6 |
| 20260831115603 | 57 | 52 | 4.0 | 11.0 | 0.00 | 0.00 | 0.00 | 98 | 1013.6 |
| 20260831115518 | 57 | 61 | 4.0 | 11.0 | 0.00 | 0.00 | 0.00 | 98 | 1013.6 |
| 20260831115403 | 57 | 62 | 6.0 | 11.0 | 0.00 | 0.00 | 0.00 | 98 | 1013.6 |
| 20260831115317 | 57 | 78 | 4.0 | 11.0 | 0.00 | 0.00 | 0.00 | 98 | 1013.6 |
| 20260831115203 | 57 | 105 | 4.0 | 11.0 | 0.00 | 0.00 | 0.00 | 98 | 1013.6 |
| 20260831115003 | 57 | 82 | 4.0 | 11.0 | 0.00 | 0.00 | 0.00 | 98 | 1013.7 |
| 20260831114903 | 57 | 89 | 3.0 | 11.0 | 0.00 | 0.00 | 0.00 | 98 | 1013.5 |
| 20260831114803 | 57 | 99 | 4.0 | 11.0 | 0.00 | 0.00 | 0.00 | 98 | 1013.3 |
| 20260831114716 | 57 | 86 | 5.0 | 11.0 | 0.00 | 0.00 | 0.00 | 98 | 1013.5 |
| 20260831114703 | 57 | 84 | 6.0 | 11.0 | 0.00 | 0.00 | 0.00 | 98 | 1013.4 |
| 20260831114603 | 57 | 81 | 6.0 | 11.0 | 0.00 | 0.00 | 0.00 | 98 | 1013.3 |
| 20260831114403 | 57 | 80 | 4.0 | 11.0 | 0.00 | 0.00 | 0.00 | 98 | 1013.5 |
| 20260831114303 | 57 | 68 | 3.0 | 11.0 | 0.00 | 0.00 | 0.00 | 98 | 1013.6 |
| 20260831114203 | 57 | 72 | 5.0 | 11.0 | 0.00 | 0.00 | 0.00 | 98 | 1013.5 |
| 20260831114103 | 57 | 70 | 5.0 | 11.0 | 0.00 | 0.00 | 0.00 | 98 | 1013.4 |
| 20260831114003 | 57 | 65 | 4.0 | 11.0 | 0.00 | 0.00 | 0.00 | 98 | 1013.5 |
| 20260831113903 | 57 | 61 | 3.0 | 11.0 | 0.00 | 0.00 | 0.00 | 98 | 1013.5 |
| 20260831113803 | 57 | 58 | 2.0 | 11.0 | 0.00 | 0.00 | 0.00 | 98 | 1013.5 |
| 20260831113703 | 57 | 54 | 2.0 | 11.0 | 0.00 | 0.00 | 0.00 | 98 | 1013.5 |
| 20260831113605 | 57 | 64 | 2.0 | 11.0 | 0.00 | 0.00 | 0.00 | 98 | 1013.5 |
| 20260831113506 | 57 | 70 | 7.0 | 11.0 | 0.00 | 0.00 | 0.00 | 98 | 1013.5 |
| 20260831113418 | 57 | 69 | 6.0 | 11.0 | 0.00 | 0.00 | 0.00 | 98 | 1013.5 |
| 20260831113405 | 57 | 74 | 6.0 | 11.0 | 0.00 | 0.00 | 0.00 | 98 | 1013.5 |
| 20260831113304 | 57 | 84 | 5.0 | 8.0 | 0.00 | 0.00 | 0.00 | 98 | 1013.4 |
| 20260831113103 | 57 | 85 | 3.0 | 9.0 | 0.00 | 0.00 | 0.00 | 98 | 1013.1 |
| 20260831113003 | 57 | 85 | 4.0 | 9.0 | 0.00 | 0.00 | 0.00 | 98 | 1013.5 |
| 20260831112917 | 57 | 86 | 4.0 | 9.0 | 0.00 | 0.00 | 0.00 | 98 | 1013.4 |
| 20260831112903 | 57 | 83 | 4.0 | 9.0 | 0.00 | 0.00 | 0.00 | 98 | 1013.4 |
| 20260831112803 | 57 | 82 | 4.0 | 9.0 | 0.00 | 0.00 | 0.00 | 98 | 1013.2 |
| 20260831112603 | 57 | 74 | 6.0 | 9.0 | 0.00 | 0.00 | 0.00 | 98 | 1013.5 |
| 20260831112503 | 57 | 72 | 2.0 | 9.0 | 0.00 | 0.00 | 0.00 | 98 | 1013.5 |
| 20260831112403 | 57 | 71 | 4.0 | 11.0 | 0.00 | 0.00 | 0.00 | 98 | 1013.3 |
| 20260831112306 | 57 | 67 | 3.0 | 11.0 | 0.00 | 0.00 | 0.00 | 98 | 1013.4 |
| 20260831112203 | 57 | 63 | 4.0 | 11.0 | 0.00 | 0.00 | 0.00 | 98 | 1013.3 |
| 20260831112103 | 57 | 52 | 2.0 | 11.0 | 0.00 | 0.00 | 0.00 | 98 | 1013.5 |
| 20260831112003 | 57 | 52 | 2.0 | 11.0 | 0.00 | 0.00 | 0.00 | 98 | 1013.4 |
| 20260831111917 | 57 | 52 | 5.0 | 11.0 | 0.00 | 0.00 | 0.00 | 98 | 1013.2 |
| 20260831111903 | 57 | 51 | 5.0 | 9.0 | 0.00 | 0.00 | 0.00 | 98 | 1013.4 |
| 20260831111803 | 57 | 50 | 3.0 | 9.0 | 0.00 | 0.00 | 0.00 | 98 | 1013.3 |
| 20260831111603 | 57 | 65 | 3.0 | 9.0 | 0.00 | 0.00 | 0.00 | 98 | 1013.2 |
| 20260831111503 | 57 | 71 | 5.0 | 9.0 | 0.00 | 0.00 | 0.00 | 98 | 1013.1 |
| 20260831111403 | 57 | 71 | 4.0 | 8.0 | 0.00 | 0.00 | 0.00 | 98 | 1013.2 |
| 20260831111303 | 57 | 74 | 4.0 | 8.0 | 0.00 | 0.00 | 0.00 | 98 | 1013.3 |
| 20260831111203 | 57 | 74 | 3.0 | 8.0 | 0.00 | 0.00 | 0.00 | 98 | 1013.1 |
| 20260831111108 | 57 | 70 | 3.0 | 8.0 | 0.00 | 0.00 | 0.00 | 98 | 1013.2 |
| 20260831111003 | 57 | 66 | 2.0 | 8.0 | 0.00 | 0.00 | 0.00 | 98 | 1013.3 |
| 20260831110917 | 57 | 67 | 2.0 | 8.0 | 0.00 | 0.00 | 0.00 | 98 | 1013.1 |
| 20260831110903 | 57 | 68 | 2.0 | 8.0 | 0.00 | 0.00 | 0.00 | 98 | 1013.1 |
| 20260831110803 | 57 | 66 | 3.0 | 7.0 | 0.00 | 0.00 | 0.00 | 98 | 1013.2 |
| 20260831110718 | 57 | 75 | 3.0 | 7.0 | 0.00 | 0.00 | 0.00 | 98 | 1013.1 |
| 20260831110603 | 57 | 80 | 3.0 | 7.0 | 0.00 | 0.00 | 0.00 | 98 | 1013.3 |
| 20260831110403 | 57 | 85 | 2.0 | 7.0 | 0.00 | 0.00 | 0.00 | 98 | 1013.3 |
| 20260831110303 | 57 | 84 | 3.0 | 9.0 | 0.00 | 0.00 | 0.00 | 98 | 1013.3 |
| 20260831110203 | 57 | 84 | 2.0 | 9.0 | 0.00 | 0.00 | 0.00 | 98 | 1013.0 |
| 20260831110003 | 57 | 82 | 3.0 | 9.0 | 0.00 | 0.00 | 0.00 | 98 | 1013.0 |
| 20260831105903 | 57 | 86 | 4.0 | 9.0 | 0.00 | 0.00 | 0.00 | 98 | 1013.1 |
| 20260831105803 | 57 | 79 | 5.0 | 9.0 | 0.00 | 0.00 | 0.00 | 98 | 1013.2 |
| 20260831105703 | 57 | 71 | 4.0 | 8.0 | 0.00 | 0.00 | 0.00 | 98 | 1013.1 |
| 20260831105603 | 57 | 56 | 4.0 | 8.0 | 0.00 | 0.00 | 0.00 | 98 | 1013.2 |
| 20260831105503 | 57 | 60 | 3.0 | 8.0 | 0.00 | 0.00 | 0.00 | 98 | 1013.2 |
| 20260831105418 | 57 | 60 | 2.0 | 8.0 | 0.00 | 0.00 | 0.00 | 98 | 1013.4 |
| 20260831105405 | 57 | 66 | 2.0 | 8.0 | 0.00 | 0.00 | 0.00 | 98 | 1013.4 |
| 20260831105306 | 57 | 79 | 3.0 | 8.0 | 0.00 | 0.00 | 0.00 | 98 | 1013.4 |
| 20260831105103 | 57 | 90 | 6.0 | 8.0 | 0.00 | 0.00 | 0.00 | 98 | 1013.1 |
| 20260831105018 | 57 | 97 | 3.0 | 8.0 | 0.00 | 0.00 | 0.00 | 98 | 1013.4 |
| 20260831105003 | 57 | 95 | 3.0 | 8.0 | 0.00 | 0.00 | 0.00 | 98 | 1013.4 |
| 20260831104903 | 57 | 94 | 4.0 | 8.0 | 0.00 | 0.00 | 0.00 | 98 | 1013.2 |
| 20260831104703 | 57 | 76 | 2.0 | 9.0 | 0.00 | 0.00 | 0.00 | 98 | 1012.9 |
| 20260831104603 | 57 | 65 | 2.0 | 9.0 | 0.00 | 0.00 | 0.00 | 98 | 1013.2 |
| 20260831104503 | 57 | 50 | 3.0 | 9.0 | 0.00 | 0.00 | 0.00 | 98 | 1013.0 |
| 20260831104403 | 57 | 50 | 4.0 | 9.0 | 0.00 | 0.00 | 0.00 | 98 | 1013.0 |
| 20260831104303 | 57 | 58 | 3.0 | 9.0 | 0.00 | 0.00 | 0.00 | 98 | 1013.0 |
| 20260831104203 | 57 | 65 | 2.0 | 9.0 | 0.00 | 0.00 | 0.00 | 98 | 1013.0 |
| 20260831104118 | 57 | 66 | 3.0 | 9.0 | 0.00 | 0.00 | 0.00 | 98 | 1013.0 |
| 20260831104103 | 57 | 67 | 3.0 | 9.0 | 0.00 | 0.00 | 0.00 | 98 | 1013.0 |
| 20260831104003 | 57 | 71 | 4.0 | 9.0 | 0.00 | 0.00 | 0.00 | 98 | 1013.0 |
| 20260831103803 | 57 | 67 | 4.0 | 11.0 | 0.00 | 0.00 | 0.00 | 98 | 1012.9 |
| 20260831103703 | 57 | 67 | 2.0 | 11.0 | 0.00 | 0.00 | 0.00 | 98 | 1013.0 |
| 20260831103603 | 57 | 73 | 4.0 | 11.0 | 0.00 | 0.00 | 0.00 | 98 | 1013.1 |
| 20260831103504 | 57 | 85 | 5.0 | 11.0 | 0.00 | 0.00 | 0.00 | 98 | 1013.1 |
| 20260831103403 | 57 | 88 | 6.0 | 11.0 | 0.00 | 0.00 | 0.00 | 98 | 1012.9 |
| 20260831103303 | 57 | 87 | 4.0 | 11.0 | 0.00 | 0.00 | 0.00 | 98 | 1013.0 |
| 20260831103217 | 57 | 85 | 4.0 | 11.0 | 0.00 | 0.00 | 0.00 | 98 | 1012.8 |
| 20260831103203 | 57 | 83 | 4.0 | 11.0 | 0.00 | 0.00 | 0.00 | 98 | 1012.8 |
| 20260831103103 | 57 | 70 | 4.0 | 11.0 | 0.00 | 0.00 | 0.00 | 98 | 1013.0 |
| 20260831102903 | 57 | 60 | 5.0 | 11.0 | 0.00 | 0.00 | 0.00 | 98 | 1013.1 |
| 20260831102803 | 57 | 49 | 5.0 | 11.0 | 0.00 | 0.00 | 0.00 | 98 | 1012.8 |
| 20260831102703 | 57 | 44 | 5.0 | 11.0 | 0.00 | 0.00 | 0.00 | 98 | 1013.0 |
| 20260831102603 | 57 | 56 | 3.0 | 11.0 | 0.00 | 0.00 | 0.00 | 98 | 1012.9 |
| 20260831102517 | 57 | 52 | 4.0 | 11.0 | 0.00 | 0.00 | 0.00 | 98 | 1012.9 |
| 20260831102503 | 57 | 48 | 4.0 | 11.0 | 0.00 | 0.00 | 0.00 | 98 | 1012.9 |
| 20260831102403 | 57 | 43 | 4.0 | 11.0 | 0.00 | 0.00 | 0.00 | 97 | 1012.9 |
| 20260831102318 | 57 | 54 | 4.0 | 11.0 | 0.00 | 0.00 | 0.00 | 97 | 1012.6 |
| 20260831102203 | 57 | 61 | 6.0 | 11.0 | 0.00 | 0.00 | 0.00 | 98 | 1013.0 |
| 20260831102118 | 57 | 63 | 6.0 | 11.0 | 0.00 | 0.00 | 0.00 | 97 | 1013.0 |
| 20260831102003 | 57 | 62 | 2.0 | 7.0 | 0.00 | 0.00 | 0.00 | 97 | 1012.7 |
| 20260831101803 | 57 | 65 | 3.0 | 7.0 | 0.00 | 0.00 | 0.00 | 97 | 1012.9 |
| 20260831101703 | 57 | 67 | 2.0 | 7.0 | 0.00 | 0.00 | 0.00 | 97 | 1013.0 |
| 20260831101603 | 57 | 64 | 4.0 | 8.0 | 0.00 | 0.00 | 0.00 | 97 | 1012.9 |
| 20260831101503 | 57 | 65 | 2.0 | 8.0 | 0.00 | 0.00 | 0.00 | 97 | 1012.9 |
| 20260831101403 | 57 | 65 | 2.0 | 8.0 | 0.00 | 0.00 | 0.00 | 97 | 1013.0 |
| 20260831101303 | 57 | 72 | 2.0 | 8.0 | 0.00 | 0.00 | 0.00 | 97 | 1013.0 |
| 20260831101203 | 57 | 69 | 1.0 | 8.0 | 0.00 | 0.00 | 0.00 | 97 | 1013.0 |
| 20260831101103 | 57 | 61 | 2.0 | 8.0 | 0.00 | 0.00 | 0.00 | 97 | 1012.9 |
| 20260831101003 | 57 | 64 | 2.0 | 8.0 | 0.00 | 0.00 | 0.00 | 97 | 1012.9 |
| 20260831100903 | 57 | 77 | 4.0 | 8.0 | 0.00 | 0.00 | 0.00 | 97 | 1012.9 |
| 20260831100803 | 57 | 80 | 3.0 | 8.0 | 0.00 | 0.00 | 0.00 | 97 | 1012.9 |
| 20260831100703 | 57 | 71 | 4.0 | 8.0 | 0.00 | 0.00 | 0.00 | 97 | 1013.0 |
| 20260831100603 | 57 | 89 | 3.0 | 8.0 | 0.00 | 0.00 | 0.00 | 97 | 1013.1 |
| 20260831100517 | 57 | 100 | 4.0 | 8.0 | 0.00 | 0.00 | 0.00 | 97 | 1012.9 |
| 20260831100503 | 57 | 102 | 4.0 | 8.0 | 0.00 | 0.00 | 0.00 | 97 | 1012.9 |
| 20260831100417 | 57 | 99 | 4.0 | 7.0 | 0.00 | 0.00 | 0.00 | 97 | 1013.2 |
| 20260831100403 | 57 | 96 | 4.0 | 7.0 | 0.00 | 0.00 | 0.00 | 97 | 1013.2 |
| 20260831100103 | 57 | 81 | 4.0 | 9.0 | 0.00 | 0.00 | 0.00 | 97 | 1012.7 |
| 20260831100007 | 57 | 73 | 4.0 | 9.0 | 0.00 | 0.00 | 0.00 | 97 | 1013.0 |
| 20260831095903 | 57 | 65 | 4.0 | 9.0 | 0.00 | 0.00 | 0.00 | 97 | 1013.0 |
| 20260831095803 | 57 | 64 | 5.0 | 9.0 | 0.00 | 0.00 | 0.00 | 97 | 1013.1 |
| 20260831095703 | 57 | 85 | 2.0 | 8.0 | 0.00 | 0.00 | 0.00 | 97 | 1012.7 |
| 20260831095603 | 57 | 81 | 3.0 | 8.0 | 0.00 | 0.00 | 0.00 | 97 | 1012.8 |
| 20260831095503 | 57 | 93 | 2.0 | 8.0 | 0.00 | 0.00 | 0.00 | 97 | 1013.1 |
| 20260831095417 | 57 | 103 | 4.0 | 8.0 | 0.00 | 0.00 | 0.00 | 97 | 1012.9 |
| 20260831095403 | 57 | 99 | 4.0 | 8.0 | 0.00 | 0.00 | 0.00 | 97 | 1012.9 |
| 20260831095306 | 57 | 80 | 1.0 | 9.0 | 0.00 | 0.00 | 0.00 | 97 | 1013.0 |
| 20260831095103 | 57 | 63 | 4.0 | 9.0 | 0.00 | 0.00 | 0.00 | 97 | 1013.0 |
| 20260831095004 | 57 | 53 | 2.0 | 9.0 | 0.00 | 0.00 | 0.00 | 97 | 1013.0 |
| 20260831094903 | 57 | 45 | 4.0 | 9.0 | 0.00 | 0.00 | 0.00 | 97 | 1013.0 |
| 20260831094806 | 57 | 47 | 4.0 | 9.0 | 0.00 | 0.00 | 0.00 | 97 | 1013.1 |
| 20260831094703 | 57 | 51 | 3.0 | 8.0 | 0.00 | 0.00 | 0.00 | 97 | 1013.0 |
| 20260831094603 | 57 | 66 | 4.0 | 8.0 | 0.00 | 0.00 | 0.00 | 97 | 1013.0 |
| 20260831094503 | 57 | 69 | 3.0 | 8.0 | 0.00 | 0.00 | 0.00 | 97 | 1012.8 |
| 20260831094403 | 57 | 69 | 3.0 | 8.0 | 0.00 | 0.00 | 0.00 | 97 | 1013.1 |
| 20260831094203 | 57 | 86 | 3.0 | 9.0 | 0.00 | 0.00 | 0.00 | 97 | 1012.9 |
| 20260831094103 | 57 | 83 | 5.0 | 9.0 | 0.00 | 0.00 | 0.00 | 97 | 1012.9 |
| 20260831094003 | 57 | 82 | 4.0 | 9.0 | 0.00 | 0.00 | 0.00 | 97 | 1013.1 |
| 20260831093904 | 57 | 80 | 4.0 | 11.0 | 0.00 | 0.00 | 0.00 | 97 | 1013.0 |
| 20260831093805 | 57 | 73 | 3.0 | 11.0 | 0.00 | 0.00 | 0.00 | 97 | 1012.8 |
| 20260831093703 | 57 | 64 | 4.0 | 13.0 | 0.00 | 0.00 | 0.00 | 97 | 1013.0 |
| 20260831093603 | 57 | 58 | 3.0 | 13.0 | 0.00 | 0.00 | 0.00 | 97 | 1013.3 |
| 20260831093503 | 57 | 53 | 6.0 | 13.0 | 0.00 | 0.00 | 0.00 | 97 | 1012.9 |
| 20260831093405 | 57 | 54 | 4.0 | 13.0 | 0.00 | 0.00 | 0.00 | 97 | 1012.9 |
| 20260831093305 | 57 | 52 | 4.0 | 13.0 | 0.00 | 0.00 | 0.00 | 97 | 1013.0 |
| 20260831093203 | 57 | 57 | 5.0 | 13.0 | 0.00 | 0.00 | 0.00 | 97 | 1012.7 |
| 20260831093105 | 57 | 60 | 2.0 | 9.0 | 0.00 | 0.00 | 0.00 | 97 | 1012.7 |
| 20260831093003 | 57 | 74 | 3.0 | 9.0 | 0.00 | 0.00 | 0.00 | 97 | 1012.7 |
| 20260831092903 | 57 | 80 | 4.0 | 9.0 | 0.00 | 0.00 | 0.00 | 97 | 1012.8 |
| 20260831092803 | 57 | 81 | 4.0 | 9.0 | 0.00 | 0.00 | 0.00 | 97 | 1012.7 |
| 20260831092717 | 57 | 75 | 4.0 | 9.0 | 0.00 | 0.00 | 0.00 | 97 | 1012.9 |
| 20260831092703 | 57 | 73 | 6.0 | 9.0 | 0.00 | 0.00 | 0.00 | 97 | 1012.7 |
| 20260831092605 | 57 | 77 | 4.0 | 9.0 | 0.00 | 0.00 | 0.00 | 97 | 1012.8 |
| 20260831092403 | 57 | 81 | 7.0 | 9.0 | 0.00 | 0.00 | 0.00 | 97 | 1012.6 |
| 20260831092306 | 57 | 85 | 4.0 | 11.0 | 0.00 | 0.00 | 0.00 | 97 | 1012.7 |
| 20260831092205 | 57 | 96 | 4.0 | 11.0 | 0.00 | 0.00 | 0.00 | 97 | 1012.6 |
| 20260831092103 | 57 | 102 | 4.0 | 11.0 | 0.00 | 0.00 | 0.00 | 97 | 1012.8 |
| 20260831092018 | 57 | 112 | 4.0 | 11.0 | 0.00 | 0.00 | 0.00 | 97 | 1012.5 |
| 20260831092003 | 57 | 116 | 4.0 | 11.0 | 0.00 | 0.00 | 0.00 | 97 | 1012.5 |
| 20260831091903 | 57 | 96 | 4.0 | 11.0 | 0.00 | 0.00 | 0.00 | 96 | 1012.9 |
| 20260831091704 | 57 | 93 | 4.0 | 8.0 | 0.00 | 0.00 | 0.00 | 96 | 1012.5 |
| 20260831091603 | 57 | 82 | 4.0 | 8.0 | 0.00 | 0.00 | 0.00 | 96 | 1012.6 |
| 20260831091503 | 57 | 67 | 3.0 | 8.0 | 0.00 | 0.00 | 0.00 | 96 | 1012.6 |
| 20260831091417 | 57 | 73 | 4.0 | 8.0 | 0.00 | 0.00 | 0.00 | 96 | 1012.8 |
| 20260831091405 | 57 | 69 | 4.0 | 8.0 | 0.00 | 0.00 | 0.00 | 96 | 1012.8 |
| 20260831091303 | 57 | 61 | 4.0 | 8.0 | 0.00 | 0.00 | 0.00 | 96 | 1012.6 |
| 20260831091103 | 57 | 55 | 4.0 | 8.0 | 0.00 | 0.00 | 0.00 | 96 | 1012.6 |
| 20260831091003 | 57 | 54 | 3.0 | 8.0 | 0.00 | 0.00 | 0.00 | 96 | 1013.0 |
| 20260831090918 | 57 | 62 | 4.0 | 8.0 | 0.00 | 0.00 | 0.00 | 96 | 1012.6 |
| 20260831090903 | 57 | 65 | 4.0 | 8.0 | 0.00 | 0.00 | 0.00 | 96 | 1012.6 |
| 20260831090805 | 57 | 73 | 1.0 | 9.0 | 0.00 | 0.00 | 0.00 | 96 | 1012.7 |
| 20260831090605 | 57 | 82 | 4.0 | 9.0 | 0.00 | 0.00 | 0.00 | 96 | 1012.9 |
| 20260831090503 | 57 | 84 | 3.0 | 9.0 | 0.00 | 0.00 | 0.00 | 96 | 1012.6 |
| 20260831090403 | 57 | 79 | 3.0 | 9.0 | 0.00 | 0.00 | 0.00 | 96 | 1012.7 |
| 20260831090303 | 57 | 75 | 3.0 | 8.0 | 0.00 | 0.00 | 0.00 | 96 | 1012.7 |
| 20260831090203 | 57 | 80 | 3.0 | 7.0 | 0.00 | 0.00 | 0.00 | 96 | 1012.9 |
| 20260831090105 | 56 | 78 | 3.0 | 7.0 | 0.00 | 0.00 | 0.00 | 96 | 1012.7 |
| 20260831090004 | 56 | 73 | 3.0 | 7.0 | 0.00 | 0.00 | 0.00 | 96 | 1012.7 |
| 20260831085903 | 56 | 69 | 3.0 | 7.0 | 0.00 | 0.00 | 0.00 | 96 | 1012.7 |
| 20260831085805 | 56 | 59 | 2.0 | 6.0 | 0.00 | 0.00 | 0.00 | 96 | 1012.6 |
| 20260831085707 | 56 | 54 | 2.0 | 6.0 | 0.00 | 0.00 | 0.00 | 96 | 1012.7 |
| 20260831085618 | 56 | 52 | 2.0 | 7.0 | 0.00 | 0.00 | 0.00 | 96 | 1012.7 |
| 20260831085603 | 56 | 50 | 2.0 | 7.0 | 0.00 | 0.00 | 0.00 | 96 | 1012.7 |
| 20260831085517 | 56 | 58 | 2.0 | 7.0 | 0.00 | 0.00 | 0.00 | 96 | 1012.5 |
| 20260831085503 | 56 | 61 | 1.0 | 7.0 | 0.00 | 0.00 | 0.00 | 96 | 1012.6 |
| 20260831085203 | 56 | 72 | 3.0 | 7.0 | 0.00 | 0.00 | 0.00 | 96 | 1012.5 |
| 20260831085103 | 56 | 95 | 4.0 | 7.0 | 0.00 | 0.00 | 0.00 | 96 | 1012.6 |
| 20260831085003 | 56 | 91 | 1.0 | 4.0 | 0.00 | 0.00 | 0.00 | 96 | 1012.6 |
| 20260831084903 | 56 | 80 | 1.0 | 4.0 | 0.00 | 0.00 | 0.00 | 96 | 1012.5 |
| 20260831084803 | 56 | 84 | 1.0 | 7.0 | 0.00 | 0.00 | 0.00 | 96 | 1012.7 |
| 20260831084717 | 56 | 92 | 1.0 | 7.0 | 0.00 | 0.00 | 0.00 | 96 | 1012.7 |
| 20260831084703 | 56 | 90 | 1.0 | 7.0 | 0.00 | 0.00 | 0.00 | 96 | 1012.6 |
| 20260831084603 | 56 | 83 | 1.0 | 7.0 | 0.00 | 0.00 | 0.00 | 96 | 1012.6 |
| 20260831084403 | 56 | 75 | 1.0 | 7.0 | 0.00 | 0.00 | 0.00 | 96 | 1012.9 |
| 20260831084318 | 56 | 71 | 4.0 | 7.0 | 0.00 | 0.00 | 0.00 | 96 | 1012.8 |
| 20260831084303 | 56 | 69 | 2.0 | 6.0 | 0.00 | 0.00 | 0.00 | 96 | 1012.6 |
| 20260831084203 | 56 | 52 | 2.0 | 6.0 | 0.00 | 0.00 | 0.00 | 96 | 1012.6 |
| 20260831084003 | 56 | 46 | 2.0 | 6.0 | 0.00 | 0.00 | 0.00 | 96 | 1012.6 |
| 20260831083903 | 56 | 49 | 2.0 | 6.0 | 0.00 | 0.00 | 0.00 | 96 | 1012.8 |
| 20260831083803 | 56 | 47 | 2.0 | 7.0 | 0.00 | 0.00 | 0.00 | 96 | 1012.6 |
| 20260831083717 | 56 | 49 | 3.0 | 7.0 | 0.00 | 0.00 | 0.00 | 96 | 1012.5 |
| 20260831083603 | 56 | 49 | 2.0 | 7.0 | 0.00 | 0.00 | 0.00 | 96 | 1012.8 |
| 20260831083403 | 56 | 32 | 1.0 | 7.0 | 0.00 | 0.00 | 0.00 | 96 | 1012.7 |
| 20260831083317 | 56 | 35 | 3.0 | 7.0 | 0.00 | 0.00 | 0.00 | 96 | 1012.7 |
| 20260831083303 | 56 | 38 | 3.0 | 7.0 | 0.00 | 0.00 | 0.00 | 96 | 1012.7 |
| 20260831083203 | 56 | 50 | 3.0 | 7.0 | 0.00 | 0.00 | 0.00 | 96 | 1012.7 |
| 20260831083003 | 56 | 97 | 1.0 | 8.0 | 0.00 | 0.00 | 0.00 | 95 | 1012.7 |
| 20260831082918 | 56 | 111 | 2.0 | 8.0 | 0.00 | 0.00 | 0.00 | 95 | 1012.6 |
| 20260831082903 | 56 | 113 | 2.0 | 8.0 | 0.00 | 0.00 | 0.00 | 95 | 1012.6 |
| 20260831082803 | 56 | 107 | 2.0 | 8.0 | 0.00 | 0.00 | 0.00 | 95 | 1012.8 |
| 20260831082717 | 56 | 107 | 2.0 | 8.0 | 0.00 | 0.00 | 0.00 | 95 | 1012.8 |
| 20260831082603 | 56 | 105 | 2.0 | 8.0 | 0.00 | 0.00 | 0.00 | 95 | 1012.5 |
| 20260831082403 | 56 | 81 | 2.0 | 8.0 | 0.00 | 0.00 | 0.00 | 95 | 1012.7 |
| 20260831082306 | 56 | 80 | 1.0 | 6.0 | 0.00 | 0.00 | 0.00 | 95 | 1012.6 |
| 20260831082218 | 56 | 82 | 1.0 | 6.0 | 0.00 | 0.00 | 0.00 | 95 | 1012.8 |
| 20260831082203 | 56 | 79 | 1.0 | 6.0 | 0.00 | 0.00 | 0.00 | 95 | 1012.8 |
| 20260831082103 | 56 | 74 | 3.0 | 6.0 | 0.00 | 0.00 | 0.00 | 95 | 1012.5 |
| 20260831082017 | 55 | 75 | 2.0 | 6.0 | 0.00 | 0.00 | 0.00 | 95 | 1012.7 |
| 20260831081903 | 56 | 73 | 2.0 | 6.0 | 0.00 | 0.00 | 0.00 | 95 | 1012.7 |
| 20260831081819 | 55 | 72 | 2.0 | 6.0 | 0.00 | 0.00 | 0.00 | 95 | 1012.7 |
| 20260831081703 | 56 | 81 | 3.0 | 6.0 | 0.00 | 0.00 | 0.00 | 95 | 1012.7 |
| 20260831081503 | 56 | 81 | 0.0 | 7.0 | 0.00 | 0.00 | 0.00 | 95 | 1012.7 |
| 20260831081403 | 55 | 81 | 1.0 | 7.0 | 0.00 | 0.00 | 0.00 | 95 | 1012.7 |
| 20260831081303 | 55 | 93 | 1.0 | 7.0 | 0.00 | 0.00 | 0.00 | 95 | 1012.5 |
| 20260831081218 | 55 | 89 | 3.0 | 7.0 | 0.00 | 0.00 | 0.00 | 95 | 1012.5 |
| 20260831081203 | 55 | 87 | 3.0 | 7.0 | 0.00 | 0.00 | 0.00 | 95 | 1012.5 |
| 20260831081108 | 55 | 92 | 2.0 | 7.0 | 0.00 | 0.00 | 0.00 | 95 | 1012.6 |
| 20260831080922 | 56 | 100 | 1.0 | 7.0 | 0.00 | 0.00 | 0.00 | 95 | 1012.5 |
| 20260831080903 | 56 | 103 | 1.0 | 7.0 | 0.00 | 0.00 | 0.00 | 95 | 1012.5 |
| 20260831080803 | 55 | 97 | 3.0 | 7.0 | 0.00 | 0.00 | 0.00 | 95 | 1012.5 |
| 20260831080603 | 56 | 87 | 2.0 | 6.0 | 0.00 | 0.00 | 0.00 | 95 | 1012.7 |
| 20260831080503 | 56 | 81 | 2.0 | 4.0 | 0.00 | 0.00 | 0.00 | 95 | 1012.6 |
| 20260831080403 | 56 | 80 | 1.0 | 4.0 | 0.00 | 0.00 | 0.00 | 95 | 1012.7 |
| 20260831080303 | 56 | 88 | 1.0 | 7.0 | 0.00 | 0.00 | 0.00 | 95 | 1012.6 |
| 20260831080203 | 56 | 92 | 1.0 | 7.0 | 0.00 | 0.00 | 0.00 | 95 | 1012.6 |
| 20260831080004 | 56 | 101 | 2.0 | 7.0 | 0.00 | 0.00 | 0.00 | 95 | 1012.6 |
| 20260831075803 | 56 | 65 | 2.0 | 7.0 | 0.00 | 0.00 | 0.00 | 95 | 1013.0 |
| 20260831075703 | 56 | 71 | 1.0 | 7.0 | 0.00 | 0.00 | 0.00 | 95 | 1012.6 |
| 20260831075603 | 56 | 68 | 0.0 | 7.0 | 0.00 | 0.00 | 0.00 | 95 | 1012.7 |
| 20260831075505 | 56 | 58 | 2.0 | 7.0 | 0.00 | 0.00 | 0.00 | 95 | 1012.7 |
| 20260831075306 | 56 | 90 | 2.0 | 7.0 | 0.00 | 0.00 | 0.00 | 95 | 1012.7 |
| 20260831075203 | 56 | 86 | 2.0 | 7.0 | 0.00 | 0.00 | 0.00 | 95 | 1012.7 |
| 20260831075005 | 56 | 101 | 2.0 | 7.0 | 0.00 | 0.00 | 0.00 | 95 | 1012.6 |
| 20260831074905 | 55 | 90 | 0.0 | 7.0 | 0.00 | 0.00 | 0.00 | 95 | 1012.6 |
| 20260831074803 | 56 | 96 | 0.0 | 7.0 | 0.00 | 0.00 | 0.00 | 95 | 1012.6 |
| 20260831074703 | 55 | 101 | 2.0 | 7.0 | 0.00 | 0.00 | 0.00 | 95 | 1012.6 |
| 20260831074617 | 55 | 101 | 4.0 | 7.0 | 0.00 | 0.00 | 0.00 | 95 | 1012.6 |
| 20260831074603 | 55 | 99 | 4.0 | 7.0 | 0.00 | 0.00 | 0.00 | 95 | 1012.6 |
| 20260831074503 | 55 | 101 | 2.0 | 7.0 | 0.00 | 0.00 | 0.00 | 95 | 1012.6 |
| 20260831074304 | 55 | 83 | 2.0 | 8.0 | 0.00 | 0.00 | 0.00 | 95 | 1012.5 |
| 20260831074204 | 55 | 72 | 0.0 | 8.0 | 0.00 | 0.00 | 0.00 | 95 | 1012.6 |
| 20260831074103 | 55 | 83 | 1.0 | 8.0 | 0.00 | 0.00 | 0.00 | 95 | 1012.6 |
| 20260831074017 | 55 | 76 | 1.0 | 8.0 | 0.00 | 0.00 | 0.00 | 95 | 1012.4 |
| 20260831074003 | 55 | 73 | 1.0 | 8.0 | 0.00 | 0.00 | 0.00 | 95 | 1012.4 |
| 20260831073903 | 55 | 62 | 4.0 | 8.0 | 0.00 | 0.00 | 0.00 | 95 | 1012.6 |
| 20260831073818 | 55 | 66 | 2.0 | 6.0 | 0.00 | 0.00 | 0.00 | 95 | 1012.7 |
| 20260831073717 | 55 | 75 | 2.0 | 6.0 | 0.00 | 0.00 | 0.00 | 95 | 1012.6 |
| 20260831073703 | 55 | 73 | 2.0 | 6.0 | 0.00 | 0.00 | 0.00 | 95 | 1012.6 |
| 20260831073403 | 55 | 86 | 2.0 | 6.0 | 0.00 | 0.00 | 0.00 | 95 | 1012.7 |
| 20260831073304 | 55 | 77 | 2.0 | 6.0 | 0.00 | 0.00 | 0.00 | 95 | 1012.7 |
| 20260831073203 | 55 | 69 | 2.0 | 6.0 | 0.00 | 0.00 | 0.00 | 95 | 1012.6 |
| 20260831073118 | 55 | 77 | 2.0 | 7.0 | 0.00 | 0.00 | 0.00 | 94 | 1012.6 |
| 20260831073017 | 55 | 65 | 2.0 | 7.0 | 0.00 | 0.00 | 0.00 | 94 | 1012.8 |
| 20260831073003 | 55 | 64 | 2.0 | 7.0 | 0.00 | 0.00 | 0.00 | 94 | 1012.8 |
| 20260831072705 | 56 | 83 | 2.0 | 7.0 | 0.00 | 0.00 | 0.00 | 94 | 1012.7 |
| 20260831072603 | 56 | 82 | 1.0 | 7.0 | 0.00 | 0.00 | 0.00 | 94 | 1012.9 |
| 20260831072505 | 56 | 84 | 2.0 | 7.0 | 0.00 | 0.00 | 0.00 | 94 | 1012.9 |
| 20260831072405 | 56 | 92 | 3.0 | 7.0 | 0.00 | 0.00 | 0.00 | 94 | 1012.9 |
| 20260831072317 | 56 | 88 | 2.0 | 7.0 | 0.00 | 0.00 | 0.00 | 94 | 1012.7 |
| 20260831072203 | 56 | 84 | 2.0 | 7.0 | 0.00 | 0.00 | 0.00 | 94 | 1012.9 |
| 20260831072017 | 56 | 97 | 0.0 | 6.0 | 0.00 | 0.00 | 0.00 | 94 | 1012.8 |
| 20260831072003 | 56 | 100 | 0.0 | 6.0 | 0.00 | 0.00 | 0.00 | 94 | 1012.8 |
| 20260831071904 | 56 | 97 | 1.0 | 6.0 | 0.00 | 0.00 | 0.00 | 94 | 1012.9 |
| 20260831071703 | 56 | 113 | 2.0 | 6.0 | 0.00 | 0.00 | 0.00 | 94 | 1012.7 |
| 20260831071603 | 56 | 106 | 4.0 | 6.0 | 0.00 | 0.00 | 0.00 | 94 | 1013.0 |
| 20260831071505 | 56 | 95 | 2.0 | 6.0 | 0.00 | 0.00 | 0.00 | 94 | 1012.9 |
| 20260831071403 | 56 | 88 | 2.0 | 6.0 | 0.00 | 0.00 | 0.00 | 94 | 1013.1 |
| 20260831071305 | 56 | 72 | 1.0 | 7.0 | 0.00 | 0.00 | 0.00 | 94 | 1013.0 |
| 20260831071203 | 56 | 65 | 3.0 | 7.0 | 0.00 | 0.00 | 0.00 | 94 | 1013.0 |
| 20260831071103 | 56 | 63 | 3.0 | 7.0 | 0.00 | 0.00 | 0.00 | 94 | 1013.2 |
| 20260831071003 | 56 | 50 | 3.0 | 7.0 | 0.00 | 0.00 | 0.00 | 94 | 1012.9 |
| 20260831070939 | 56 | 47 | 3.0 | 7.0 | 0.00 | 0.00 | 0.00 | 94 | 1012.9 |
| 20260831070805 | 56 | 51 | 4.0 | 7.0 | 0.00 | 0.00 | 0.00 | 94 | 1013.3 |
| 20260831070704 | 56 | 63 | 4.0 | 6.0 | 0.00 | 0.00 | 0.00 | 94 | 1013.2 |
| 20260831070605 | 56 | 65 | 2.0 | 6.0 | 0.00 | 0.00 | 0.00 | 94 | 1013.2 |
| 20260831070503 | 56 | 83 | 2.0 | 6.0 | 0.00 | 0.00 | 0.00 | 94 | 1013.0 |
| 20260831070405 | 56 | 93 | 3.0 | 6.0 | 0.00 | 0.00 | 0.00 | 94 | 1013.3 |
| 20260831070303 | 56 | 107 | 3.0 | 6.0 | 0.00 | 0.00 | 0.00 | 94 | 1013.3 |
| 20260831070203 | 56 | 106 | 2.0 | 6.0 | 0.00 | 0.00 | 0.00 | 94 | 1013.0 |
| 20260831070118 | 56 | 107 | 2.0 | 6.0 | 0.00 | 0.00 | 0.00 | 94 | 1013.1 |
| 20260831070103 | 56 | 101 | 2.0 | 6.0 | 0.00 | 0.00 | 0.00 | 94 | 1013.1 |
| 20260831070003 | 56 | 91 | 2.0 | 6.0 | 0.00 | 0.00 | 0.00 | 94 | 1013.4 |
| 20260831065803 | 56 | 70 | 2.0 | 8.0 | 0.00 | 0.00 | 0.00 | 94 | 1013.3 |
| 20260831065719 | 56 | 72 | 2.0 | 8.0 | 0.00 | 0.00 | 0.00 | 94 | 1013.4 |
| 20260831065703 | 56 | 68 | 2.0 | 8.0 | 0.00 | 0.00 | 0.00 | 94 | 1013.4 |
| 20260831065603 | 56 | 70 | 2.0 | 8.0 | 0.00 | 0.00 | 0.00 | 94 | 1013.4 |
| 20260831065520 | 56 | 71 | 1.0 | 8.0 | 0.00 | 0.00 | 0.00 | 94 | 1013.4 |
| 20260831065416 | 56 | 77 | 3.0 | 8.0 | 0.00 | 0.00 | 0.00 | 94 | 1013.4 |
| 20260831065403 | 56 | 83 | 3.0 | 8.0 | 0.00 | 0.00 | 0.00 | 94 | 1013.4 |
| 20260831065103 | 56 | 97 | 1.0 | 6.0 | 0.00 | 0.00 | 0.00 | 93 | 1013.3 |
| 20260831065003 | 56 | 90 | 2.0 | 6.0 | 0.00 | 0.00 | 0.00 | 93 | 1013.3 |
| 20260831064903 | 56 | 86 | 1.0 | 6.0 | 0.00 | 0.00 | 0.00 | 93 | 1013.5 |
| 20260831064803 | 56 | 93 | 1.0 | 6.0 | 0.00 | 0.00 | 0.00 | 93 | 1013.4 |
| 20260831064719 | 56 | 92 | 3.0 | 6.0 | 0.00 | 0.00 | 0.00 | 93 | 1013.5 |
| 20260831064703 | 56 | 93 | 3.0 | 6.0 | 0.00 | 0.00 | 0.00 | 93 | 1013.3 |
| 20260831064617 | 56 | 110 | 2.0 | 6.0 | 0.00 | 0.00 | 0.00 | 93 | 1013.4 |
| 20260831064605 | 56 | 116 | 2.0 | 6.0 | 0.00 | 0.00 | 0.00 | 93 | 1013.4 |
| 20260831064317 | 56 | 108 | 1.0 | 7.0 | 0.00 | 0.00 | 0.00 | 93 | 1013.6 |
| 20260831064303 | 56 | 107 | 0.0 | 7.0 | 0.00 | 0.00 | 0.00 | 93 | 1013.4 |
| 20260831064217 | 56 | 106 | 2.0 | 7.0 | 0.00 | 0.00 | 0.00 | 93 | 1013.4 |
| 20260831064203 | 56 | 104 | 2.0 | 7.0 | 0.00 | 0.00 | 0.00 | 93 | 1013.4 |
| 20260831064017 | 56 | 97 | 3.0 | 7.0 | 0.00 | 0.00 | 0.00 | 93 | 1013.3 |
| 20260831063903 | 56 | 101 | 2.0 | 4.0 | 0.00 | 0.00 | 0.00 | 93 | 1013.3 |
| 20260831063703 | 56 | 102 | 2.0 | 4.0 | 0.00 | 0.00 | 0.00 | 93 | 1013.3 |
| 20260831063604 | 56 | 99 | 2.0 | 4.0 | 0.00 | 0.00 | 0.00 | 93 | 1013.3 |
| 20260831063503 | 56 | 83 | 1.0 | 6.0 | 0.00 | 0.00 | 0.00 | 93 | 1013.1 |
| 20260831063403 | 56 | 66 | 1.0 | 6.0 | 0.00 | 0.00 | 0.00 | 93 | 1013.4 |
| 20260831063303 | 56 | 58 | 1.0 | 6.0 | 0.00 | 0.00 | 0.00 | 93 | 1013.2 |
| 20260831063203 | 56 | 54 | 2.0 | 6.0 | 0.00 | 0.00 | 0.00 | 93 | 1013.5 |
| 20260831063103 | 56 | 62 | 1.0 | 6.0 | 0.00 | 0.00 | 0.00 | 93 | 1013.2 |
| 20260831063017 | 56 | 55 | 4.0 | 6.0 | 0.00 | 0.00 | 0.00 | 93 | 1013.3 |
| 20260831063003 | 56 | 61 | 4.0 | 6.0 | 0.00 | 0.00 | 0.00 | 93 | 1013.3 |
| 20260831062905 | 56 | 72 | 1.0 | 6.0 | 0.00 | 0.00 | 0.00 | 93 | 1013.4 |
| 20260831062617 | 56 | 82 | 1.0 | 4.0 | 0.00 | 0.00 | 0.00 | 93 | 1013.5 |
| 20260831062603 | 56 | 84 | 1.0 | 4.0 | 0.00 | 0.00 | 0.00 | 93 | 1013.5 |
| 20260831062503 | 56 | 89 | 1.0 | 4.0 | 0.00 | 0.00 | 0.00 | 93 | 1013.6 |
| 20260831062305 | 56 | 82 | 2.0 | 6.0 | 0.00 | 0.00 | 0.00 | 93 | 1013.5 |
| 20260831062203 | 56 | 82 | 2.0 | 6.0 | 0.00 | 0.00 | 0.00 | 93 | 1013.5 |
| 20260831062103 | 56 | 74 | 2.0 | 6.0 | 0.00 | 0.00 | 0.00 | 93 | 1013.9 |
| 20260831062003 | 56 | 73 | 2.0 | 6.0 | 0.00 | 0.00 | 0.00 | 93 | 1013.5 |
| 20260831061905 | 56 | 75 | 2.0 | 6.0 | 0.00 | 0.00 | 0.00 | 93 | 1013.5 |
| 20260831061803 | 56 | 69 | 3.0 | 6.0 | 0.00 | 0.00 | 0.00 | 93 | 1013.4 |
| 20260831061703 | 56 | 67 | 1.0 | 6.0 | 0.00 | 0.00 | 0.00 | 93 | 1013.6 |
| 20260831061617 | 56 | 75 | 2.0 | 7.0 | 0.00 | 0.00 | 0.00 | 92 | 1013.4 |
| 20260831061603 | 56 | 79 | 2.0 | 7.0 | 0.00 | 0.00 | 0.00 | 92 | 1013.4 |
| 20260831061503 | 56 | 79 | 2.0 | 7.0 | 0.00 | 0.00 | 0.00 | 92 | 1013.5 |
| 20260831061303 | 56 | 75 | 4.0 | 7.0 | 0.00 | 0.00 | 0.00 | 92 | 1013.6 |
| 20260831061203 | 56 | 80 | 2.0 | 7.0 | 0.00 | 0.00 | 0.00 | 92 | 1013.7 |
| 20260831061104 | 56 | 70 | 2.0 | 7.0 | 0.00 | 0.00 | 0.00 | 92 | 1013.7 |
| 20260831061003 | 56 | 71 | 2.0 | 7.0 | 0.00 | 0.00 | 0.00 | 92 | 1013.6 |
| 20260831060904 | 56 | 69 | 2.0 | 7.0 | 0.00 | 0.00 | 0.00 | 92 | 1013.8 |
| 20260831060803 | 56 | 68 | 3.0 | 7.0 | 0.00 | 0.00 | 0.00 | 92 | 1013.5 |
| 20260831060703 | 56 | 61 | 1.0 | 6.0 | 0.00 | 0.00 | 0.00 | 92 | 1013.7 |
| 20260831060603 | 56 | 62 | 1.0 | 6.0 | 0.00 | 0.00 | 0.00 | 92 | 1013.7 |
| 20260831060503 | 56 | 63 | 2.0 | 6.0 | 0.00 | 0.00 | 0.00 | 92 | 1013.9 |
| 20260831060403 | 56 | 67 | 2.0 | 6.0 | 0.00 | 0.00 | 0.00 | 92 | 1014.1 |
| 20260831060305 | 56 | 73 | 3.0 | 6.0 | 0.00 | 0.00 | 0.00 | 92 | 1013.7 |
| 20260831060203 | 56 | 80 | 2.0 | 6.0 | 0.00 | 0.00 | 0.00 | 92 | 1014.0 |
| 20260831060105 | 56 | 78 | 1.0 | 6.0 | 0.00 | 0.00 | 0.00 | 92 | 1014.0 |
| 20260831060003 | 56 | 70 | 2.0 | 6.0 | 0.00 | 0.00 | 0.00 | 92 | 1013.9 |
| 20260831055903 | 56 | 71 | 2.0 | 6.0 | 0.00 | 0.00 | 0.00 | 92 | 1013.9 |
| 20260831055803 | 56 | 56 | 2.0 | 6.0 | 0.00 | 0.00 | 0.00 | 92 | 1014.2 |
| 20260831055708 | 56 | 50 | 2.0 | 6.0 | 0.00 | 0.00 | 0.00 | 92 | 1013.8 |
| 20260831055603 | 56 | 39 | 2.0 | 8.0 | 0.00 | 0.00 | 0.00 | 92 | 1014.0 |
| 20260831055503 | 56 | 53 | 2.0 | 8.0 | 0.00 | 0.00 | 0.00 | 92 | 1013.9 |
| 20260831055418 | 56 | 48 | 1.0 | 8.0 | 0.00 | 0.00 | 0.00 | 92 | 1014.1 |
| 20260831055403 | 56 | 51 | 1.0 | 8.0 | 0.00 | 0.00 | 0.00 | 92 | 1014.1 |
| 20260831055317 | 56 | 61 | 2.0 | 8.0 | 0.00 | 0.00 | 0.00 | 92 | 1013.8 |
| 20260831055306 | 56 | 66 | 2.0 | 8.0 | 0.00 | 0.00 | 0.00 | 92 | 1013.8 |
| 20260831055120 | 56 | 77 | 4.0 | 8.0 | 0.00 | 0.00 | 0.00 | 91 | 1014.2 |
| 20260831055003 | 56 | 66 | 0.0 | 7.0 | 0.00 | 0.00 | 0.00 | 91 | 1013.9 |
| 20260831054818 | 56 | 53 | 2.0 | 7.0 | 0.00 | 0.00 | 0.00 | 91 | 1014.4 |
| 20260831054803 | 56 | 51 | 2.0 | 7.0 | 0.00 | 0.00 | 0.00 | 91 | 1014.4 |
| 20260831054703 | 56 | 64 | 2.0 | 7.0 | 0.00 | 0.00 | 0.00 | 91 | 1014.1 |
| 20260831054503 | 56 | 78 | 4.0 | 7.0 | 0.00 | 0.00 | 0.00 | 91 | 1014.1 |
| 20260831054405 | 56 | 79 | 3.0 | 7.0 | 0.00 | 0.00 | 0.00 | 91 | 1014.0 |
| 20260831054303 | 56 | 88 | 2.0 | 6.0 | 0.00 | 0.00 | 0.00 | 91 | 1014.2 |
| 20260831054203 | 56 | 91 | 2.0 | 6.0 | 0.00 | 0.00 | 0.00 | 91 | 1014.0 |
| 20260831054103 | 56 | 86 | 1.0 | 6.0 | 0.00 | 0.00 | 0.00 | 91 | 1014.0 |
| 20260831054003 | 56 | 85 | 2.0 | 6.0 | 0.00 | 0.00 | 0.00 | 91 | 1014.1 |
| 20260831053903 | 56 | 89 | 2.0 | 6.0 | 0.00 | 0.00 | 0.00 | 91 | 1014.3 |
| 20260831053803 | 56 | 91 | 3.0 | 6.0 | 0.00 | 0.00 | 0.00 | 91 | 1014.1 |
| 20260831053703 | 56 | 86 | 2.0 | 6.0 | 0.00 | 0.00 | 0.00 | 91 | 1014.2 |
| 20260831053603 | 56 | 83 | 2.0 | 6.0 | 0.00 | 0.00 | 0.00 | 91 | 1014.2 |
| 20260831053503 | 56 | 86 | 1.0 | 6.0 | 0.00 | 0.00 | 0.00 | 90 | 1014.1 |
| 20260831053403 | 56 | 85 | 1.0 | 6.0 | 0.00 | 0.00 | 0.00 | 90 | 1014.3 |
| 20260831053303 | 56 | 80 | 2.0 | 6.0 | 0.00 | 0.00 | 0.00 | 90 | 1014.2 |
| 20260831053203 | 56 | 74 | 2.0 | 6.0 | 0.00 | 0.00 | 0.00 | 90 | 1014.3 |
| 20260831053104 | 56 | 66 | 1.0 | 6.0 | 0.00 | 0.00 | 0.00 | 90 | 1014.4 |
| 20260831053004 | 56 | 66 | 0.0 | 6.0 | 0.00 | 0.00 | 0.00 | 90 | 1014.5 |
| 20260831052903 | 56 | 67 | 0.0 | 6.0 | 0.00 | 0.00 | 0.00 | 90 | 1014.5 |
| 20260831052803 | 56 | 63 | 1.0 | 6.0 | 0.00 | 0.00 | 0.00 | 90 | 1014.4 |
| 20260831052703 | 56 | 59 | 2.0 | 7.0 | 0.00 | 0.00 | 0.00 | 90 | 1014.2 |
| 20260831052603 | 56 | 66 | 0.0 | 7.0 | 0.00 | 0.00 | 0.00 | 90 | 1014.3 |
| 20260831052503 | 56 | 63 | 1.0 | 7.0 | 0.00 | 0.00 | 0.00 | 90 | 1014.5 |
| 20260831052403 | 56 | 68 | 1.0 | 7.0 | 0.00 | 0.00 | 0.00 | 90 | 1014.2 |
| 20260831052306 | 56 | 70 | 1.0 | 7.0 | 0.00 | 0.00 | 0.00 | 90 | 1014.3 |
| 20260831052204 | 56 | 76 | 2.0 | 7.0 | 0.00 | 0.00 | 0.00 | 90 | 1014.3 |
| 20260831052118 | 56 | 82 | 2.0 | 8.0 | 0.00 | 0.00 | 0.00 | 89 | 1014.4 |
| 20260831052103 | 56 | 85 | 2.0 | 8.0 | 0.00 | 0.00 | 0.00 | 89 | 1014.4 |
| 20260831052003 | 56 | 94 | 1.0 | 8.0 | 0.00 | 0.00 | 0.00 | 89 | 1014.2 |
| 20260831051803 | 56 | 80 | 0.0 | 8.0 | 0.00 | 0.00 | 0.00 | 89 | 1014.4 |
| 20260831051705 | 56 | 89 | 4.0 | 8.0 | 0.00 | 0.00 | 0.00 | 89 | 1014.4 |
| 20260831051603 | 56 | 76 | 5.0 | 8.0 | 0.00 | 0.00 | 0.00 | 89 | 1014.3 |
| 20260831051503 | 56 | 61 | 4.0 | 8.0 | 0.00 | 0.00 | 0.00 | 89 | 1014.4 |
| 20260831051403 | 56 | 76 | 0.0 | 8.0 | 0.00 | 0.00 | 0.00 | 89 | 1014.4 |
| 20260831051303 | 56 | 76 | 0.0 | 8.0 | 0.00 | 0.00 | 0.00 | 89 | 1014.5 |
| 20260831051203 | 56 | 68 | 3.0 | 8.0 | 0.00 | 0.00 | 0.00 | 89 | 1014.3 |
| 20260831051103 | 56 | 73 | 0.0 | 8.0 | 0.00 | 0.00 | 0.00 | 89 | 1014.4 |
| 20260831051003 | 56 | 73 | 2.0 | 8.0 | 0.00 | 0.00 | 0.00 | 89 | 1014.2 |
| 20260831050903 | 56 | 92 | 3.0 | 8.0 | 0.00 | 0.00 | 0.00 | 89 | 1014.4 |
| 20260831050803 | 56 | 102 | 4.0 | 8.0 | 0.00 | 0.00 | 0.00 | 89 | 1014.5 |
| 20260831050703 | 56 | 103 | 3.0 | 8.0 | 0.00 | 0.00 | 0.00 | 89 | 1014.5 |
| 20260831050603 | 56 | 105 | 2.0 | 8.0 | 0.00 | 0.00 | 0.00 | 89 | 1014.4 |
| 20260831050503 | 56 | 88 | 2.0 | 8.0 | 0.00 | 0.00 | 0.00 | 88 | 1014.7 |
| 20260831050403 | 56 | 79 | 4.0 | 8.0 | 0.00 | 0.00 | 0.00 | 88 | 1014.4 |
| 20260831050303 | 56 | 66 | 3.0 | 9.0 | 0.00 | 0.00 | 0.00 | 88 | 1014.4 |
| 20260831050203 | 56 | 64 | 3.0 | 9.0 | 0.00 | 0.00 | 0.00 | 88 | 1014.4 |
| 20260831050103 | 56 | 59 | 3.0 | 9.0 | 0.00 | 0.00 | 0.00 | 88 | 1014.4 |
| 20260831050003 | 56 | 64 | 2.0 | 9.0 | 0.00 | 0.00 | 0.00 | 88 | 1014.6 |
| 20260831045903 | 56 | 73 | 0.0 | 9.0 | 0.00 | 0.00 | 0.00 | 88 | 1014.5 |
| 20260831045803 | 56 | 85 | 4.0 | 9.0 | 0.00 | 0.00 | 0.00 | 88 | 1014.4 |
| 20260831045703 | 56 | 98 | 0.0 | 6.0 | 0.00 | 0.00 | 0.00 | 88 | 1014.6 |
| 20260831045603 | 56 | 97 | 0.0 | 6.0 | 0.00 | 0.00 | 0.00 | 88 | 1014.5 |
| 20260831045503 | 56 | 109 | 2.0 | 6.0 | 0.00 | 0.00 | 0.00 | 88 | 1014.6 |
| 20260831045403 | 56 | 114 | 2.0 | 6.0 | 0.00 | 0.00 | 0.00 | 88 | 1014.5 |
| 20260831045306 | 56 | 90 | 0.0 | 4.0 | 0.00 | 0.00 | 0.00 | 88 | 1014.7 |
| 20260831045203 | 56 | 88 | 0.0 | 4.0 | 0.00 | 0.00 | 0.00 | 88 | 1014.5 |
| 20260831045103 | 56 | 83 | 1.0 | 4.0 | 0.00 | 0.00 | 0.00 | 88 | 1014.7 |
| 20260831045003 | 56 | 72 | 0.0 | 4.0 | 0.00 | 0.00 | 0.00 | 88 | 1014.7 |
| 20260831044903 | 56 | 86 | 0.0 | 6.0 | 0.00 | 0.00 | 0.00 | 87 | 1014.7 |
| 20260831044803 | 56 | 85 | 2.0 | 6.0 | 0.00 | 0.00 | 0.00 | 87 | 1014.5 |
| 20260831044703 | 56 | 88 | 1.0 | 7.0 | 0.00 | 0.00 | 0.00 | 87 | 1014.7 |
| 20260831044616 | 56 | 97 | 0.0 | 7.0 | 0.00 | 0.00 | 0.00 | 87 | 1014.6 |
| 20260831044603 | 56 | 98 | 0.0 | 7.0 | 0.00 | 0.00 | 0.00 | 87 | 1014.6 |
| 20260831044503 | 56 | 101 | 0.0 | 7.0 | 0.00 | 0.00 | 0.00 | 87 | 1014.5 |
| 20260831044303 | 56 | 100 | 3.0 | 7.0 | 0.00 | 0.00 | 0.00 | 87 | 1014.7 |
| 20260831044203 | 56 | 98 | 2.0 | 7.0 | 0.00 | 0.00 | 0.00 | 87 | 1014.6 |
| 20260831044103 | 56 | 92 | 3.0 | 7.0 | 0.00 | 0.00 | 0.00 | 87 | 1014.5 |
| 20260831044003 | 56 | 86 | 2.0 | 7.0 | 0.00 | 0.00 | 0.00 | 87 | 1014.8 |
| 20260831043905 | 56 | 100 | 1.0 | 7.0 | 0.00 | 0.00 | 0.00 | 87 | 1014.7 |
| 20260831043803 | 56 | 95 | 2.0 | 7.0 | 0.00 | 0.00 | 0.00 | 87 | 1014.8 |
| 20260831043703 | 56 | 80 | 3.0 | 7.0 | 0.00 | 0.00 | 0.00 | 87 | 1014.5 |
| 20260831043603 | 56 | 91 | 0.0 | 6.0 | 0.00 | 0.00 | 0.00 | 87 | 1014.7 |
| 20260831043503 | 56 | 81 | 1.0 | 7.0 | 0.00 | 0.00 | 0.00 | 87 | 1014.6 |
| 20260831043417 | 56 | 77 | 2.0 | 7.0 | 0.00 | 0.00 | 0.00 | 87 | 1014.7 |
| 20260831043403 | 56 | 80 | 2.0 | 7.0 | 0.00 | 0.00 | 0.00 | 87 | 1014.7 |
| 20260831043303 | 56 | 77 | 2.0 | 7.0 | 0.00 | 0.00 | 0.00 | 87 | 1014.6 |
| 20260831043103 | 56 | 94 | 4.0 | 7.0 | 0.00 | 0.00 | 0.00 | 86 | 1014.6 |
| 20260831043003 | 56 | 110 | 3.0 | 6.0 | 0.00 | 0.00 | 0.00 | 86 | 1014.5 |
| 20260831042903 | 56 | 101 | 2.0 | 6.0 | 0.00 | 0.00 | 0.00 | 86 | 1014.6 |
| 20260831042817 | 56 | 86 | 1.0 | 6.0 | 0.00 | 0.00 | 0.00 | 86 | 1014.4 |
| 20260831042803 | 56 | 81 | 1.0 | 6.0 | 0.00 | 0.00 | 0.00 | 86 | 1014.4 |
| 20260831042703 | 57 | 65 | 2.0 | 6.0 | 0.00 | 0.00 | 0.00 | 86 | 1014.7 |
| 20260831042503 | 57 | 64 | 3.0 | 6.0 | 0.00 | 0.00 | 0.00 | 86 | 1014.6 |
| 20260831042417 | 57 | 68 | 2.0 | 6.0 | 0.00 | 0.00 | 0.00 | 86 | 1014.6 |
| 20260831042403 | 57 | 67 | 2.0 | 6.0 | 0.00 | 0.00 | 0.00 | 86 | 1014.6 |
| 20260831042318 | 57 | 75 | 2.0 | 6.0 | 0.00 | 0.00 | 0.00 | 86 | 1014.5 |
| 20260831042306 | 57 | 82 | 2.0 | 6.0 | 0.00 | 0.00 | 0.00 | 86 | 1014.4 |
| 20260831042217 | 57 | 97 | 2.0 | 6.0 | 0.00 | 0.00 | 0.00 | 86 | 1014.6 |
| 20260831041903 | 57 | 113 | 1.0 | 9.0 | 0.00 | 0.00 | 0.00 | 86 | 1014.2 |
| 20260831041803 | 57 | 119 | 2.0 | 9.0 | 0.00 | 0.00 | 0.00 | 85 | 1014.6 |
| 20260831041703 | 57 | 131 | 3.0 | 9.0 | 0.00 | 0.00 | 0.00 | 85 | 1014.5 |
| 20260831041603 | 57 | 152 | 4.0 | 9.0 | 0.00 | 0.00 | 0.00 | 85 | 1014.4 |
| 20260831041503 | 57 | 124 | 2.0 | 13.0 | 0.00 | 0.00 | 0.00 | 85 | 1014.5 |
| 20260831041418 | 57 | 111 | 2.0 | 13.0 | 0.00 | 0.00 | 0.00 | 85 | 1014.3 |
| 20260831041404 | 57 | 107 | 2.0 | 13.0 | 0.00 | 0.00 | 0.00 | 85 | 1014.3 |
| 20260831041304 | 57 | 86 | 2.0 | 13.0 | 0.00 | 0.00 | 0.00 | 85 | 1014.3 |
| 20260831041117 | 57 | 73 | 2.0 | 13.0 | 0.00 | 0.00 | 0.00 | 85 | 1014.6 |
| 20260831041103 | 57 | 73 | 3.0 | 13.0 | 0.00 | 0.00 | 0.00 | 85 | 1014.6 |
| 20260831041018 | 57 | 79 | 4.0 | 13.0 | 0.00 | 0.00 | 0.00 | 85 | 1014.4 |
| 20260831040703 | 57 | 74 | 4.0 | 8.0 | 0.00 | 0.00 | 0.00 | 85 | 1014.4 |
| 20260831040603 | 57 | 80 | 4.0 | 8.0 | 0.00 | 0.00 | 0.00 | 85 | 1014.4 |
| 20260831040503 | 57 | 81 | 4.0 | 7.0 | 0.00 | 0.00 | 0.00 | 85 | 1014.5 |
| 20260831040403 | 57 | 91 | 3.0 | 7.0 | 0.00 | 0.00 | 0.00 | 84 | 1014.4 |
| 20260831040318 | 57 | 100 | 2.0 | 9.0 | 0.00 | 0.00 | 0.00 | 84 | 1014.4 |
| 20260831040303 | 57 | 97 | 4.0 | 9.0 | 0.00 | 0.00 | 0.00 | 84 | 1014.5 |
| 20260831040203 | 57 | 81 | 4.0 | 9.0 | 0.00 | 0.00 | 0.00 | 84 | 1014.5 |
| 20260831040003 | 57 | 103 | 3.0 | 11.0 | 0.00 | 0.00 | 0.00 | 84 | 1014.5 |
| 20260831035903 | 57 | 94 | 4.0 | 11.0 | 0.00 | 0.00 | 0.00 | 84 | 1014.3 |
| 20260831035803 | 57 | 92 | 4.0 | 11.0 | 0.00 | 0.00 | 0.00 | 84 | 1014.3 |
| 20260831035703 | 57 | 93 | 4.0 | 11.0 | 0.00 | 0.00 | 0.00 | 84 | 1014.6 |
| 20260831035603 | 57 | 83 | 5.0 | 11.0 | 0.00 | 0.00 | 0.00 | 84 | 1014.5 |
| 20260831035503 | 57 | 72 | 4.0 | 8.0 | 0.00 | 0.00 | 0.00 | 83 | 1014.3 |
| 20260831035403 | 57 | 80 | 4.0 | 9.0 | 0.00 | 0.00 | 0.00 | 83 | 1014.5 |
| 20260831035306 | 57 | 89 | 2.0 | 9.0 | 0.00 | 0.00 | 0.00 | 83 | 1014.5 |
| 20260831035216 | 57 | 93 | 2.0 | 9.0 | 0.00 | 0.00 | 0.00 | 83 | 1014.6 |
| 20260831035203 | 57 | 96 | 2.0 | 9.0 | 0.00 | 0.00 | 0.00 | 83 | 1014.6 |
| 20260831035105 | 57 | 112 | 2.0 | 11.0 | 0.00 | 0.00 | 0.00 | 83 | 1014.6 |
| 20260831034903 | 57 | 84 | 4.0 | 11.0 | 0.00 | 0.00 | 0.00 | 83 | 1014.7 |
| 20260831034803 | 57 | 78 | 4.0 | 11.0 | 0.00 | 0.00 | 0.00 | 83 | 1014.5 |
| 20260831034703 | 58 | 74 | 4.0 | 11.0 | 0.00 | 0.00 | 0.00 | 83 | 1014.7 |
| 20260831034603 | 58 | 72 | 6.0 | 11.0 | 0.00 | 0.00 | 0.00 | 83 | 1014.6 |
| 20260831034503 | 58 | 79 | 4.0 | 9.0 | 0.00 | 0.00 | 0.00 | 83 | 1014.7 |
| 20260831034417 | 58 | 81 | 5.0 | 9.0 | 0.00 | 0.00 | 0.00 | 83 | 1014.8 |
| 20260831034403 | 58 | 83 | 5.0 | 9.0 | 0.00 | 0.00 | 0.00 | 83 | 1014.8 |
| 20260831034303 | 58 | 92 | 4.0 | 9.0 | 0.00 | 0.00 | 0.00 | 83 | 1014.7 |
| 20260831034103 | 58 | 99 | 4.0 | 9.0 | 0.00 | 0.00 | 0.00 | 82 | 1014.7 |
| 20260831034003 | 58 | 87 | 5.0 | 9.0 | 0.00 | 0.00 | 0.00 | 82 | 1014.6 |
| 20260831033918 | 58 | 89 | 2.0 | 9.0 | 0.00 | 0.00 | 0.00 | 82 | 1014.5 |
| 20260831033803 | 58 | 77 | 4.0 | 9.0 | 0.00 | 0.00 | 0.00 | 82 | 1014.4 |
| 20260831033618 | 58 | 73 | 4.0 | 9.0 | 0.00 | 0.00 | 0.00 | 82 | 1014.6 |
| 20260831033604 | 58 | 69 | 4.0 | 9.0 | 0.00 | 0.00 | 0.00 | 82 | 1014.6 |
| 20260831033517 | 58 | 88 | 4.0 | 8.0 | 0.00 | 0.00 | 0.00 | 82 | 1014.4 |
| 20260831033503 | 58 | 93 | 3.0 | 8.0 | 0.00 | 0.00 | 0.00 | 82 | 1014.6 |
| 20260831033203 | 58 | 104 | 2.0 | 8.0 | 0.00 | 0.00 | 0.00 | 82 | 1014.7 |
| 20260831033103 | 58 | 102 | 3.0 | 8.0 | 0.00 | 0.00 | 0.00 | 82 | 1014.5 |
| 20260831033003 | 58 | 79 | 2.0 | 6.0 | 0.00 | 0.00 | 0.00 | 82 | 1014.3 |
| 20260831032903 | 58 | 73 | 4.0 | 6.0 | 0.00 | 0.00 | 0.00 | 81 | 1014.6 |
| 20260831032803 | 58 | 57 | 2.0 | 6.0 | 0.00 | 0.00 | 0.00 | 81 | 1014.4 |
| 20260831032704 | 58 | 57 | 2.0 | 11.0 | 0.00 | 0.00 | 0.00 | 81 | 1014.5 |
| 20260831032603 | 58 | 50 | 4.0 | 11.0 | 0.00 | 0.00 | 0.00 | 81 | 1014.4 |
| 20260831032503 | 58 | 48 | 2.0 | 11.0 | 0.00 | 0.00 | 0.00 | 81 | 1014.2 |
| 20260831032403 | 58 | 51 | 2.0 | 11.0 | 0.00 | 0.00 | 0.00 | 81 | 1014.4 |
| 20260831032306 | 58 | 64 | 2.0 | 11.0 | 0.00 | 0.00 | 0.00 | 81 | 1014.3 |
| 20260831032203 | 58 | 88 | 4.0 | 13.0 | 0.00 | 0.00 | 0.00 | 81 | 1014.2 |
| 20260831032103 | 58 | 104 | 3.0 | 13.0 | 0.00 | 0.00 | 0.00 | 81 | 1014.4 |
| 20260831032003 | 58 | 102 | 3.0 | 13.0 | 0.00 | 0.00 | 0.00 | 81 | 1014.1 |
| 20260831031903 | 58 | 95 | 1.0 | 13.0 | 0.00 | 0.00 | 0.00 | 81 | 1014.4 |
| 20260831031803 | 58 | 92 | 1.0 | 13.0 | 0.00 | 0.00 | 0.00 | 81 | 1014.2 |
| 20260831031703 | 59 | 84 | 5.0 | 13.0 | 0.00 | 0.00 | 0.00 | 81 | 1014.2 |
| 20260831031603 | 59 | 76 | 3.0 | 11.0 | 0.00 | 0.00 | 0.00 | 80 | 1014.2 |
| 20260831031503 | 59 | 81 | 2.0 | 8.0 | 0.00 | 0.00 | 0.00 | 80 | 1014.2 |
| 20260831031403 | 59 | 73 | 2.0 | 8.0 | 0.00 | 0.00 | 0.00 | 80 | 1014.2 |
| 20260831031303 | 59 | 80 | 3.0 | 8.0 | 0.00 | 0.00 | 0.00 | 80 | 1014.2 |
| 20260831031203 | 59 | 84 | 2.0 | 8.0 | 0.00 | 0.00 | 0.00 | 80 | 1014.3 |
| 20260831031103 | 59 | 87 | 2.0 | 8.0 | 0.00 | 0.00 | 0.00 | 80 | 1014.2 |
| 20260831031017 | 59 | 84 | 4.0 | 8.0 | 0.00 | 0.00 | 0.00 | 80 | 1014.4 |
| 20260831031003 | 59 | 88 | 4.0 | 8.0 | 0.00 | 0.00 | 0.00 | 80 | 1014.4 |
| 20260831030923 | 59 | 94 | 2.0 | 8.0 | 0.00 | 0.00 | 0.00 | 80 | 1014.4 |
| 20260831030603 | 59 | 88 | 2.0 | 7.0 | 0.00 | 0.00 | 0.00 | 80 | 1014.2 |
| 20260831030503 | 59 | 92 | 3.0 | 8.0 | 0.00 | 0.00 | 0.00 | 80 | 1014.4 |
| 20260831030417 | 59 | 96 | 2.0 | 8.0 | 0.00 | 0.00 | 0.00 | 80 | 1014.4 |
| 20260831030403 | 59 | 97 | 2.0 | 8.0 | 0.00 | 0.00 | 0.00 | 80 | 1014.4 |
| 20260831030303 | 59 | 94 | 2.0 | 8.0 | 0.00 | 0.00 | 0.00 | 79 | 1014.6 |
| 20260831030003 | 59 | 92 | 4.0 | 8.0 | 0.00 | 0.00 | 0.00 | 79 | 1014.3 |
| 20260831025903 | 59 | 88 | 4.0 | 8.0 | 0.00 | 0.00 | 0.00 | 79 | 1014.4 |
| 20260831025803 | 59 | 94 | 2.0 | 8.0 | 0.00 | 0.00 | 0.00 | 79 | 1014.6 |
| 20260831025717 | 59 | 95 | 3.0 | 8.0 | 0.00 | 0.00 | 0.00 | 79 | 1014.4 |
| 20260831025703 | 59 | 96 | 3.0 | 8.0 | 0.00 | 0.00 | 0.00 | 79 | 1014.4 |
| 20260831025603 | 59 | 101 | 4.0 | 8.0 | 0.00 | 0.00 | 0.00 | 78 | 1014.5 |
| 20260831025417 | 60 | 95 | 4.0 | 9.0 | 0.00 | 0.00 | 0.00 | 78 | 1014.4 |
| 20260831025403 | 60 | 94 | 4.0 | 9.0 | 0.00 | 0.00 | 0.00 | 78 | 1014.4 |
| 20260831025306 | 60 | 90 | 2.0 | 9.0 | 0.00 | 0.00 | 0.00 | 78 | 1014.5 |
| 20260831025218 | 60 | 89 | 2.0 | 11.0 | 0.00 | 0.00 | 0.00 | 78 | 1014.5 |
| 20260831025117 | 60 | 84 | 4.0 | 11.0 | 0.00 | 0.00 | 0.00 | 78 | 1014.4 |
| 20260831025103 | 60 | 82 | 2.0 | 11.0 | 0.00 | 0.00 | 0.00 | 78 | 1014.1 |
| 20260831024803 | 60 | 69 | 3.0 | 11.0 | 0.00 | 0.00 | 0.00 | 77 | 1014.3 |
| 20260831024717 | 60 | 62 | 4.0 | 11.0 | 0.00 | 0.00 | 0.00 | 77 | 1014.5 |
| 20260831024703 | 60 | 61 | 4.0 | 9.0 | 0.00 | 0.00 | 0.00 | 77 | 1014.2 |
| 20260831024618 | 60 | 61 | 2.0 | 11.0 | 0.00 | 0.00 | 0.00 | 77 | 1014.3 |
| 20260831024603 | 60 | 60 | 2.0 | 11.0 | 0.00 | 0.00 | 0.00 | 77 | 1014.3 |
| 20260831024520 | 60 | 58 | 3.0 | 11.0 | 0.00 | 0.00 | 0.00 | 76 | 1014.5 |
| 20260831024203 | 60 | 75 | 4.0 | 11.0 | 0.00 | 0.00 | 0.00 | 76 | 1014.2 |
| 20260831024103 | 60 | 80 | 4.0 | 11.0 | 0.00 | 0.00 | 0.00 | 76 | 1014.3 |
| 20260831024003 | 60 | 85 | 4.0 | 11.0 | 0.00 | 0.00 | 0.00 | 76 | 1014.2 |
| 20260831023903 | 61 | 93 | 5.0 | 11.0 | 0.00 | 0.00 | 0.00 | 75 | 1014.3 |
| 20260831023816 | 61 | 92 | 6.0 | 9.0 | 0.00 | 0.00 | 0.00 | 75 | 1014.4 |
| 20260831023803 | 61 | 91 | 6.0 | 9.0 | 0.00 | 0.00 | 0.00 | 75 | 1014.4 |
| 20260831023717 | 61 | 86 | 3.0 | 7.0 | 0.00 | 0.00 | 0.00 | 75 | 1014.4 |
| 20260831023703 | 61 | 83 | 3.0 | 7.0 | 0.00 | 0.00 | 0.00 | 75 | 1014.4 |
| 20260831023404 | 61 | 69 | 3.0 | 7.0 | 0.00 | 0.00 | 0.00 | 74 | 1014.3 |
| 20260831023303 | 61 | 64 | 2.0 | 9.0 | 0.00 | 0.00 | 0.00 | 74 | 1014.4 |
| 20260831023203 | 61 | 70 | 2.0 | 9.0 | 0.00 | 0.00 | 0.00 | 74 | 1014.3 |
| 20260831023003 | 61 | 64 | 2.0 | 9.0 | 0.00 | 0.00 | 0.00 | 74 | 1014.3 |
| 20260831022918 | 61 | 71 | 3.0 | 9.0 | 0.00 | 0.00 | 0.00 | 74 | 1014.1 |
| 20260831022903 | 61 | 72 | 3.0 | 9.0 | 0.00 | 0.00 | 0.00 | 74 | 1014.1 |
| 20260831022803 | 61 | 75 | 4.0 | 9.0 | 0.00 | 0.00 | 0.00 | 74 | 1014.4 |
| 20260831022717 | 61 | 74 | 2.0 | 7.0 | 0.00 | 0.00 | 0.00 | 74 | 1014.2 |
| 20260831022603 | 61 | 81 | 3.0 | 11.0 | 0.00 | 0.00 | 0.00 | 74 | 1014.3 |
| 20260831022518 | 61 | 84 | 2.0 | 11.0 | 0.00 | 0.00 | 0.00 | 74 | 1014.2 |
| 20260831022403 | 61 | 91 | 2.0 | 11.0 | 0.00 | 0.00 | 0.00 | 74 | 1014.1 |
| 20260831022203 | 62 | 81 | 5.0 | 11.0 | 0.00 | 0.00 | 0.00 | 73 | 1014.1 |
| 20260831022103 | 62 | 137 | 4.0 | 11.0 | 0.00 | 0.00 | 0.00 | 74 | 1014.3 |
| 20260831022003 | 62 | 137 | 2.0 | 11.0 | 0.00 | 0.00 | 0.00 | 74 | 1014.1 |
| 20260831021904 | 62 | 289 | 4.0 | 7.0 | 0.00 | 0.00 | 0.00 | 74 | 1014.4 |
| 20260831021803 | 62 | 102 | 2.0 | 7.0 | 0.00 | 0.00 | 0.00 | 74 | 1014.1 |
| 20260831021703 | 62 | 82 | 2.0 | 7.0 | 0.00 | 0.00 | 0.00 | 74 | 1014.2 |
| 20260831021603 | 62 | 85 | 4.0 | 7.0 | 0.00 | 0.00 | 0.00 | 74 | 1014.2 |
| 20260831021518 | 62 | 71 | 4.0 | 7.0 | 0.00 | 0.00 | 0.00 | 74 | 1014.4 |
| 20260831021503 | 62 | 59 | 2.0 | 8.0 | 0.00 | 0.00 | 0.00 | 74 | 1014.3 |
| 20260831021403 | 62 | 72 | 2.0 | 8.0 | 0.00 | 0.00 | 0.00 | 74 | 1014.3 |
| 20260831021203 | 62 | 102 | 2.0 | 8.0 | 0.00 | 0.00 | 0.00 | 73 | 1014.1 |
| 20260831021116 | 62 | 96 | 4.0 | 8.0 | 0.00 | 0.00 | 0.00 | 73 | 1014.3 |
| 20260831021103 | 62 | 97 | 3.0 | 8.0 | 0.00 | 0.00 | 0.00 | 73 | 1014.3 |
| 20260831021017 | 62 | 111 | 4.0 | 8.0 | 0.00 | 0.00 | 0.00 | 73 | 1014.2 |
| 20260831021003 | 62 | 112 | 4.0 | 8.0 | 0.00 | 0.00 | 0.00 | 73 | 1014.2 |
| 20260831020703 | 62 | 113 | 5.0 | 8.0 | 0.00 | 0.00 | 0.00 | 73 | 1014.2 |
| 20260831020603 | 62 | 111 | 3.0 | 9.0 | 0.00 | 0.00 | 0.00 | 73 | 1014.1 |
| 20260831020503 | 62 | 90 | 3.0 | 9.0 | 0.00 | 0.00 | 0.00 | 73 | 1014.5 |
| 20260831020403 | 62 | 84 | 2.0 | 11.0 | 0.00 | 0.00 | 0.00 | 72 | 1014.2 |
| 20260831020303 | 62 | 88 | 4.0 | 14.0 | 0.00 | 0.00 | 0.00 | 72 | 1014.3 |
| 20260831020203 | 62 | 76 | 4.0 | 14.0 | 0.00 | 0.00 | 0.00 | 72 | 1014.2 |
| 20260831020103 | 62 | 61 | 5.0 | 14.0 | 0.00 | 0.00 | 0.00 | 72 | 1014.1 |
| 20260831020004 | 63 | 64 | 6.0 | 14.0 | 0.00 | 0.00 | 0.00 | 72 | 1014.3 |
| 20260831015903 | 63 | 64 | 6.0 | 14.0 | 0.00 | 0.00 | 0.00 | 71 | 1014.2 |
| 20260831015803 | 63 | 64 | 5.0 | 11.0 | 0.00 | 0.00 | 0.00 | 71 | 1014.3 |
| 20260831015703 | 63 | 67 | 5.0 | 11.0 | 0.00 | 0.00 | 0.00 | 71 | 1014.4 |
| 20260831015604 | 63 | 75 | 4.0 | 9.0 | 0.00 | 0.00 | 0.00 | 71 | 1014.2 |
| 20260831015503 | 63 | 80 | 3.0 | 11.0 | 0.00 | 0.00 | 0.00 | 71 | 1014.0 |
| 20260831015417 | 63 | 83 | 4.0 | 11.0 | 0.00 | 0.00 | 0.00 | 71 | 1014.0 |
| 20260831015403 | 63 | 86 | 4.0 | 11.0 | 0.00 | 0.00 | 0.00 | 71 | 1014.0 |
| 20260831015305 | 63 | 84 | 4.0 | 11.0 | 0.00 | 0.00 | 0.00 | 70 | 1014.0 |
| 20260831015103 | 63 | 103 | 6.0 | 11.0 | 0.00 | 0.00 | 0.00 | 70 | 1014.1 |
| 20260831015003 | 63 | 123 | 7.0 | 11.0 | 0.00 | 0.00 | 0.00 | 70 | 1014.3 |
| 20260831014917 | 63 | 122 | 6.0 | 11.0 | 0.00 | 0.00 | 0.00 | 70 | 1014.4 |
| 20260831014903 | 63 | 116 | 6.0 | 11.0 | 0.00 | 0.00 | 0.00 | 70 | 1014.4 |
| 20260831014803 | 63 | 105 | 3.0 | 11.0 | 0.00 | 0.00 | 0.00 | 70 | 1014.2 |
| 20260831014717 | 63 | 86 | 6.0 | 11.0 | 0.00 | 0.00 | 0.00 | 70 | 1014.3 |
| 20260831014603 | 63 | 79 | 4.0 | 9.0 | 0.00 | 0.00 | 0.00 | 70 | 1014.3 |
| 20260831014404 | 63 | 59 | 4.0 | 9.0 | 0.00 | 0.00 | 0.00 | 69 | 1014.3 |
| 20260831014303 | 63 | 58 | 2.0 | 9.0 | 0.00 | 0.00 | 0.00 | 69 | 1014.4 |
| 20260831014203 | 63 | 64 | 2.0 | 9.0 | 0.00 | 0.00 | 0.00 | 69 | 1014.2 |
| 20260831014103 | 63 | 75 | 4.0 | 9.0 | 0.00 | 0.00 | 0.00 | 69 | 1014.2 |
| 20260831014003 | 63 | 63 | 2.0 | 8.0 | 0.00 | 0.00 | 0.00 | 69 | 1014.2 |
| 20260831013903 | 63 | 75 | 2.0 | 11.0 | 0.00 | 0.00 | 0.00 | 69 | 1014.4 |
| 20260831013818 | 63 | 84 | 3.0 | 11.0 | 0.00 | 0.00 | 0.00 | 69 | 1014.3 |
| 20260831013803 | 63 | 83 | 3.0 | 11.0 | 0.00 | 0.00 | 0.00 | 69 | 1014.3 |
| 20260831013703 | 63 | 77 | 2.0 | 11.0 | 0.00 | 0.00 | 0.00 | 69 | 1014.3 |
| 20260831013503 | 63 | 94 | 6.0 | 11.0 | 0.00 | 0.00 | 0.00 | 69 | 1014.3 |
| 20260831013403 | 63 | 99 | 4.0 | 13.0 | 0.00 | 0.00 | 0.00 | 69 | 1014.4 |
| 20260831013303 | 63 | 97 | 3.0 | 13.0 | 0.00 | 0.00 | 0.00 | 68 | 1014.4 |
| 20260831013204 | 64 | 99 | 4.0 | 13.0 | 0.00 | 0.00 | 0.00 | 68 | 1014.2 |
| 20260831013017 | 64 | 105 | 4.0 | 13.0 | 0.00 | 0.00 | 0.00 | 68 | 1014.3 |
| 20260831013003 | 64 | 104 | 4.0 | 13.0 | 0.00 | 0.00 | 0.00 | 68 | 1014.3 |
| 20260831012903 | 64 | 114 | 4.0 | 13.0 | 0.00 | 0.00 | 0.00 | 68 | 1014.2 |
| 20260831012705 | 64 | 120 | 4.0 | 11.0 | 0.00 | 0.00 | 0.00 | 68 | 1014.4 |
| 20260831012603 | 64 | 113 | 4.0 | 11.0 | 0.00 | 0.00 | 0.00 | 68 | 1014.3 |
| 20260831012518 | 64 | 103 | 6.0 | 11.0 | 0.00 | 0.00 | 0.00 | 68 | 1014.3 |
| 20260831012503 | 64 | 99 | 6.0 | 11.0 | 0.00 | 0.00 | 0.00 | 68 | 1014.3 |
| 20260831012418 | 64 | 98 | 6.0 | 11.0 | 0.00 | 0.00 | 0.00 | 68 | 1014.1 |
| 20260831012403 | 64 | 97 | 6.0 | 11.0 | 0.00 | 0.00 | 0.00 | 68 | 1014.1 |
| 20260831012103 | 64 | 79 | 4.0 | 11.0 | 0.00 | 0.00 | 0.00 | 68 | 1014.3 |
| 20260831012005 | 64 | 77 | 3.0 | 11.0 | 0.00 | 0.00 | 0.00 | 68 | 1014.4 |
| 20260831011903 | 64 | 65 | 4.0 | 11.0 | 0.00 | 0.00 | 0.00 | 67 | 1014.1 |
| 20260831011803 | 64 | 77 | 4.0 | 11.0 | 0.00 | 0.00 | 0.00 | 67 | 1014.3 |
| 20260831011703 | 64 | 86 | 4.0 | 11.0 | 0.00 | 0.00 | 0.00 | 67 | 1014.2 |
| 20260831011503 | 64 | 101 | 5.0 | 11.0 | 0.00 | 0.00 | 0.00 | 67 | 1014.0 |
| 20260831011403 | 64 | 109 | 4.0 | 11.0 | 0.00 | 0.00 | 0.00 | 67 | 1014.0 |
| 20260831011303 | 64 | 99 | 4.0 | 11.0 | 0.00 | 0.00 | 0.00 | 67 | 1014.2 |
| 20260831011203 | 64 | 92 | 4.0 | 11.0 | 0.00 | 0.00 | 0.00 | 67 | 1014.1 |
| 20260831011103 | 64 | 91 | 7.0 | 11.0 | 0.00 | 0.00 | 0.00 | 67 | 1014.1 |
| 20260831011003 | 64 | 86 | 3.0 | 9.0 | 0.00 | 0.00 | 0.00 | 67 | 1014.1 |
| 20260831010903 | 64 | 87 | 3.0 | 9.0 | 0.00 | 0.00 | 0.00 | 67 | 1014.1 |
| 20260831010803 | 64 | 85 | 3.0 | 9.0 | 0.00 | 0.00 | 0.00 | 67 | 1014.3 |
| 20260831010703 | 64 | 79 | 4.0 | 9.0 | 0.00 | 0.00 | 0.00 | 67 | 1014.1 |
| 20260831010603 | 64 | 18 | 3.0 | 9.0 | 0.00 | 0.00 | 0.00 | 67 | 1014.0 |
| 20260831010504 | 64 | 355 | 2.0 | 9.0 | 0.00 | 0.00 | 0.00 | 67 | 1014.2 |
| 20260831010418 | 64 | 115 | 2.0 | 9.0 | 0.00 | 0.00 | 0.00 | 66 | 1014.2 |
| 20260831010403 | 64 | 137 | 2.0 | 9.0 | 0.00 | 0.00 | 0.00 | 66 | 1014.2 |
| 20260831010303 | 64 | 105 | 3.0 | 11.0 | 0.00 | 0.00 | 0.00 | 66 | 1014.0 |
| 20260831010003 | 65 | 90 | 3.0 | 11.0 | 0.00 | 0.00 | 0.00 | 66 | 1013.8 |
| 20260831005903 | 65 | 78 | 5.0 | 11.0 | 0.00 | 0.00 | 0.00 | 66 | 1013.6 |
| 20260831005803 | 65 | 79 | 5.0 | 11.0 | 0.00 | 0.00 | 0.00 | 66 | 1013.9 |
| 20260831005703 | 65 | 71 | 5.0 | 11.0 | 0.00 | 0.00 | 0.00 | 66 | 1014.0 |
| 20260831005603 | 65 | 79 | 5.0 | 11.0 | 0.00 | 0.00 | 0.00 | 66 | 1013.6 |
| 20260831005504 | 65 | 86 | 5.0 | 11.0 | 0.00 | 0.00 | 0.00 | 66 | 1013.9 |
| 20260831005403 | 65 | 81 | 6.0 | 13.0 | 0.00 | 0.00 | 0.00 | 66 | 1013.8 |
| 20260831005306 | 65 | 86 | 4.0 | 13.0 | 0.00 | 0.00 | 0.00 | 66 | 1014.0 |
| 20260831005203 | 65 | 118 | 4.0 | 13.0 | 0.00 | 0.00 | 0.00 | 66 | 1014.1 |
| 20260831005103 | 65 | 76 | 4.0 | 13.0 | 0.00 | 0.00 | 0.00 | 66 | 1013.8 |
| 20260831005003 | 65 | 45 | 4.0 | 13.0 | 0.00 | 0.00 | 0.00 | 66 | 1014.0 |
| 20260831004903 | 65 | 53 | 5.0 | 13.0 | 0.00 | 0.00 | 0.00 | 66 | 1014.1 |
| 20260831004803 | 65 | 85 | 5.0 | 11.0 | 0.00 | 0.00 | 0.00 | 66 | 1013.9 |
| 20260831004703 | 65 | 72 | 4.0 | 9.0 | 0.00 | 0.00 | 0.00 | 66 | 1013.9 |
| 20260831004603 | 65 | 62 | 4.0 | 13.0 | 0.00 | 0.00 | 0.00 | 66 | 1014.0 |
| 20260831004503 | 65 | 72 | 4.0 | 18.0 | 0.00 | 0.00 | 0.00 | 66 | 1013.9 |
| 20260831004403 | 65 | 79 | 4.0 | 18.0 | 0.00 | 0.00 | 0.00 | 66 | 1014.2 |
| 20260831004303 | 66 | 80 | 4.0 | 18.0 | 0.00 | 0.00 | 0.00 | 65 | 1014.0 |
| 20260831004204 | 66 | 101 | 4.0 | 18.0 | 0.00 | 0.00 | 0.00 | 65 | 1013.9 |
| 20260831004103 | 66 | 111 | 6.0 | 18.0 | 0.00 | 0.00 | 0.00 | 64 | 1013.7 |
| 20260831004016 | 66 | 122 | 8.0 | 18.0 | 0.00 | 0.00 | 0.00 | 64 | 1014.0 |
| 20260831004003 | 66 | 127 | 8.0 | 18.0 | 0.00 | 0.00 | 0.00 | 64 | 1014.0 |
| 20260831003917 | 66 | 136 | 5.0 | 13.0 | 0.00 | 0.00 | 0.00 | 64 | 1013.9 |
| 20260831003903 | 66 | 134 | 7.0 | 13.0 | 0.00 | 0.00 | 0.00 | 63 | 1014.0 |
| 20260831003603 | 66 | 121 | 5.0 | 13.0 | 0.00 | 0.00 | 0.00 | 63 | 1014.3 |
| 20260831003503 | 66 | 124 | 6.0 | 13.0 | 0.00 | 0.00 | 0.00 | 63 | 1013.8 |
| 20260831003403 | 66 | 127 | 5.0 | 13.0 | 0.00 | 0.00 | 0.00 | 63 | 1013.8 |
| 20260831003303 | 66 | 145 | 8.0 | 13.0 | 0.00 | 0.00 | 0.00 | 63 | 1013.8 |
| 20260831003203 | 66 | 148 | 4.0 | 13.0 | 0.00 | 0.00 | 0.00 | 63 | 1014.0 |
| 20260831003118 | 67 | 147 | 4.0 | 13.0 | 0.00 | 0.00 | 0.00 | 63 | 1014.0 |
| 20260831003103 | 67 | 136 | 4.0 | 11.0 | 0.00 | 0.00 | 0.00 | 63 | 1014.0 |
| 20260831003016 | 67 | 110 | 3.0 | 9.0 | 0.00 | 0.00 | 0.00 | 63 | 1014.0 |
| 20260831003003 | 67 | 104 | 3.0 | 9.0 | 0.00 | 0.00 | 0.00 | 63 | 1014.0 |
| 20260831002703 | 67 | 75 | 4.0 | 11.0 | 0.00 | 0.00 | 0.00 | 63 | 1013.9 |
| 20260831002603 | 67 | 58 | 5.0 | 11.0 | 0.00 | 0.00 | 0.00 | 63 | 1013.9 |
| 20260831002517 | 67 | 61 | 3.0 | 11.0 | 0.00 | 0.00 | 0.00 | 62 | 1014.2 |
| 20260831002503 | 67 | 62 | 3.0 | 11.0 | 0.00 | 0.00 | 0.00 | 62 | 1014.2 |
| 20260831002403 | 67 | 61 | 4.0 | 11.0 | 0.00 | 0.00 | 0.00 | 62 | 1014.1 |
| 20260831002203 | 67 | 78 | 4.0 | 13.0 | 0.00 | 0.00 | 0.00 | 62 | 1013.9 |
| 20260831002103 | 67 | 84 | 4.0 | 13.0 | 0.00 | 0.00 | 0.00 | 62 | 1014.1 |
| 20260831002003 | 67 | 87 | 4.0 | 13.0 | 0.00 | 0.00 | 0.00 | 62 | 1013.9 |
| 20260831001903 | 67 | 101 | 6.0 | 13.0 | 0.00 | 0.00 | 0.00 | 62 | 1014.1 |
| 20260831001817 | 67 | 110 | 5.0 | 11.0 | 0.00 | 0.00 | 0.00 | 63 | 1013.7 |
| 20260831001803 | 67 | 102 | 5.0 | 11.0 | 0.00 | 0.00 | 0.00 | 63 | 1013.7 |
| 20260831001703 | 67 | 91 | 4.0 | 11.0 | 0.00 | 0.00 | 0.00 | 64 | 1014.0 |
| 20260831001517 | 67 | 107 | 2.0 | 11.0 | 0.00 | 0.00 | 0.00 | 64 | 1013.9 |
| 20260831001403 | 67 | 83 | 4.0 | 11.0 | 0.00 | 0.00 | 0.00 | 64 | 1014.0 |
| 20260831001203 | 67 | 105 | 4.0 | 14.0 | 0.00 | 0.00 | 0.00 | 64 | 1014.0 |
| 20260831001103 | 66 | 116 | 6.0 | 14.0 | 0.00 | 0.00 | 0.00 | 65 | 1014.1 |
| 20260831001003 | 66 | 133 | 6.0 | 14.0 | 0.00 | 0.00 | 0.00 | 65 | 1013.9 |
| 20260831000903 | 66 | 164 | 4.0 | 14.0 | 0.00 | 0.00 | 0.00 | 65 | 1013.8 |
| 20260831000803 | 66 | 142 | 7.0 | 14.0 | 0.00 | 0.00 | 0.00 | 65 | 1014.1 |
| 20260831000703 | 66 | 109 | 5.0 | 8.0 | 0.00 | 0.00 | 0.00 | 66 | 1013.9 |
| 20260831000603 | 66 | 98 | 3.0 | 7.0 | 0.00 | 0.00 | 0.00 | 66 | 1013.9 |
| 20260831000517 | 65 | 94 | 4.0 | 7.0 | 0.00 | 0.00 | 0.00 | 66 | 1014.0 |
| 20260831000503 | 65 | 93 | 4.0 | 7.0 | 0.00 | 0.00 | 0.00 | 66 | 1014.0 |
| 20260831000403 | 65 | 74 | 4.0 | 7.0 | 0.00 | 0.00 | 0.00 | 67 | 1014.1 |
| 20260831000218 | 65 | 70 | 4.0 | 8.0 | 0.00 | 0.00 | 0.00 | 67 | 1013.6 |
| 20260831000204 | 65 | 73 | 4.0 | 8.0 | 0.00 | 0.00 | 0.00 | 67 | 1013.6 |
| 20260831000103 | 65 | 71 | 2.0 | 8.0 | 0.00 | 0.00 | 0.00 | 68 | 1013.8 |
| 20260830235903 | 65 | 67 | 3.0 | 8.0 | 0.00 | 0.00 | 0.00 | 68 | 1013.7 |
| 20260830235803 | 65 | 73 | 5.0 | 9.0 | 0.00 | 0.00 | 0.00 | 68 | 1013.9 |
| 20260830235703 | 65 | 69 | 3.0 | 9.0 | 0.00 | 0.00 | 0.00 | 68 | 1013.7 |
| 20260830235616 | 65 | 72 | 2.0 | 11.0 | 0.00 | 0.00 | 0.00 | 68 | 1013.6 |
| 20260830235603 | 65 | 75 | 2.0 | 11.0 | 0.00 | 0.00 | 0.00 | 68 | 1013.6 |
| 20260830235503 | 65 | 82 | 2.0 | 11.0 | 0.00 | 0.00 | 0.00 | 68 | 1013.8 |
| 20260830235305 | 65 | 91 | 5.0 | 11.0 | 0.00 | 0.00 | 0.00 | 68 | 1013.7 |
| 20260830235203 | 65 | 90 | 4.0 | 11.0 | 0.00 | 0.00 | 0.00 | 68 | 1013.6 |
| 20260830235117 | 65 | 90 | 4.0 | 11.0 | 0.00 | 0.00 | 0.00 | 68 | 1013.5 |
| 20260830235103 | 65 | 89 | 4.0 | 8.0 | 0.00 | 0.00 | 0.00 | 68 | 1013.6 |
| 20260830235003 | 65 | 90 | 3.0 | 8.0 | 0.00 | 0.00 | 0.00 | 68 | 1013.8 |
| 20260830234803 | 65 | 81 | 4.0 | 8.0 | 0.00 | 0.00 | 0.00 | 69 | 1013.6 |
| 20260830234718 | 65 | 84 | 4.0 | 8.0 | 0.00 | 0.00 | 0.00 | 69 | 1013.8 |
| 20260830234703 | 65 | 84 | 4.0 | 8.0 | 0.00 | 0.00 | 0.00 | 69 | 1013.6 |
| 20260830234603 | 65 | 87 | 3.0 | 7.0 | 0.00 | 0.00 | 0.00 | 69 | 1013.9 |
| 20260830234403 | 65 | 98 | 2.0 | 6.0 | 0.00 | 0.00 | 0.00 | 69 | 1013.8 |
| 20260830234303 | 65 | 96 | 2.0 | 6.0 | 0.00 | 0.00 | 0.00 | 68 | 1013.9 |
| 20260830234203 | 65 | 92 | 3.0 | 6.0 | 0.00 | 0.00 | 0.00 | 68 | 1013.8 |
| 20260830234103 | 65 | 93 | 3.0 | 4.0 | 0.00 | 0.00 | 0.00 | 68 | 1014.0 |
| 20260830234003 | 65 | 92 | 2.0 | 4.0 | 0.00 | 0.00 | 0.00 | 68 | 1014.1 |
| 20260830233903 | 65 | 95 | 1.0 | 4.0 | 0.00 | 0.00 | 0.00 | 68 | 1014.2 |
| 20260830233803 | 65 | 92 | 2.0 | 4.0 | 0.00 | 0.00 | 0.00 | 68 | 1013.9 |
| 20260830233705 | 65 | 90 | 1.0 | 4.0 | 0.00 | 0.00 | 0.00 | 67 | 1014.4 |
| 20260830233616 | 65 | 83 | 2.0 | 4.0 | 0.00 | 0.00 | 0.00 | 67 | 1014.2 |
| 20260830233603 | 65 | 75 | 2.0 | 4.0 | 0.00 | 0.00 | 0.00 | 67 | 1014.2 |
| 20260830233503 | 65 | 93 | 1.0 | 6.0 | 0.00 | 0.00 | 0.00 | 67 | 1014.3 |
| 20260830233418 | 65 | 95 | 0.0 | 7.0 | 0.00 | 0.00 | 0.00 | 66 | 1014.3 |
| 20260830233303 | 65 | 96 | 2.0 | 7.0 | 0.00 | 0.00 | 0.00 | 66 | 1014.1 |
| 20260830233103 | 65 | 98 | 2.0 | 7.0 | 0.00 | 0.00 | 0.00 | 65 | 1014.1 |
| 20260830233003 | 65 | 88 | 3.0 | 7.0 | 0.00 | 0.00 | 0.00 | 65 | 1014.0 |
| 20260830232917 | 66 | 86 | 4.0 | 7.0 | 0.00 | 0.00 | 0.00 | 65 | 1014.0 |
| 20260830232903 | 66 | 87 | 4.0 | 7.0 | 0.00 | 0.00 | 0.00 | 65 | 1014.0 |
| 20260830232803 | 66 | 87 | 3.0 | 6.0 | 0.00 | 0.00 | 0.00 | 64 | 1014.2 |
| 20260830232603 | 66 | 75 | 3.0 | 6.0 | 0.00 | 0.00 | 0.00 | 63 | 1014.1 |
| 20260830232503 | 66 | 74 | 3.0 | 4.0 | 0.00 | 0.00 | 0.00 | 63 | 1014.3 |
| 20260830232403 | 66 | 76 | 2.0 | 4.0 | 0.00 | 0.00 | 0.00 | 63 | 1014.2 |
| 20260830232305 | 66 | 74 | 2.0 | 4.0 | 0.00 | 0.00 | 0.00 | 63 | 1014.3 |
| 20260830232203 | 66 | 79 | 2.0 | 4.0 | 0.00 | 0.00 | 0.00 | 63 | 1014.3 |
| 20260830232103 | 66 | 80 | 2.0 | 4.0 | 0.00 | 0.00 | 0.00 | 63 | 1014.2 |
| 20260830232008 | 66 | 77 | 2.0 | 4.0 | 0.00 | 0.00 | 0.00 | 63 | 1014.4 |
| 20260830231903 | 66 | 71 | 2.0 | 4.0 | 0.00 | 0.00 | 0.00 | 63 | 1014.4 |
| 20260830231803 | 66 | 66 | 2.0 | 2.0 | 0.00 | 0.00 | 0.00 | 63 | 1014.4 |
| 20260830231703 | 66 | 71 | 2.0 | 2.0 | 0.00 | 0.00 | 0.00 | 64 | 1014.2 |
| 20260830231618 | 66 | 74 | 1.0 | 2.0 | 0.00 | 0.00 | 0.00 | 64 | 1014.1 |
| 20260830231603 | 66 | 76 | 1.0 | 2.0 | 0.00 | 0.00 | 0.00 | 64 | 1014.1 |
| 20260830231517 | 66 | 83 | 1.0 | 2.0 | 0.00 | 0.00 | 0.00 | 64 | 1014.3 |
| 20260830231503 | 66 | 86 | 0.0 | 2.0 | 0.00 | 0.00 | 0.00 | 64 | 1014.3 |
| 20260830231203 | 66 | 90 | 1.0 | 2.0 | 0.00 | 0.00 | 0.00 | 63 | 1014.2 |
| 20260830231117 | 66 | 90 | 1.0 | 2.0 | 0.00 | 0.00 | 0.00 | 64 | 1014.3 |
| 20260830231103 | 66 | 90 | 0.0 | 2.0 | 0.00 | 0.00 | 0.00 | 64 | 1014.1 |
| 20260830231005 | 66 | 90 | 0.0 | 2.0 | 0.00 | 0.00 | 0.00 | 64 | 1014.2 |
| 20260830230803 | 66 | 88 | 1.0 | 4.0 | 0.00 | 0.00 | 0.00 | 64 | 1014.1 |
| 20260830230703 | 66 | 88 | 1.0 | 4.0 | 0.00 | 0.00 | 0.00 | 64 | 1014.2 |
| 20260830230603 | 66 | 90 | 1.0 | 4.0 | 0.00 | 0.00 | 0.00 | 64 | 1014.2 |
| 20260830230503 | 66 | 91 | 1.0 | 4.0 | 0.00 | 0.00 | 0.00 | 64 | 1014.2 |
| 20260830230403 | 66 | 91 | 2.0 | 4.0 | 0.00 | 0.00 | 0.00 | 64 | 1014.0 |
| 20260830230318 | 66 | 94 | 1.0 | 2.0 | 0.00 | 0.00 | 0.00 | 64 | 1014.1 |
| 20260830230203 | 66 | 93 | 1.0 | 2.0 | 0.00 | 0.00 | 0.00 | 64 | 1014.1 |
| 20260830230004 | 66 | 73 | 0.0 | 2.0 | 0.00 | 0.00 | 0.00 | 64 | 1014.3 |
| 20260830225903 | 66 | 76 | 0.0 | 2.0 | 0.00 | 0.00 | 0.00 | 64 | 1014.0 |
| 20260830225819 | 66 | 82 | 1.0 | 4.0 | 0.00 | 0.00 | 0.00 | 64 | 1014.1 |
| 20260830225803 | 66 | 85 | 1.0 | 4.0 | 0.00 | 0.00 | 0.00 | 64 | 1014.1 |
| 20260830225703 | 66 | 90 | 1.0 | 4.0 | 0.00 | 0.00 | 0.00 | 64 | 1014.1 |
| 20260830225618 | 66 | 92 | 0.0 | 4.0 | 0.00 | 0.00 | 0.00 | 64 | 1014.0 |
| 20260830225503 | 66 | 95 | 1.0 | 6.0 | 0.00 | 0.00 | 0.00 | 64 | 1013.8 |
| 20260830225305 | 66 | 96 | 2.0 | 6.0 | 0.00 | 0.00 | 0.00 | 64 | 1013.8 |
| 20260830225203 | 66 | 95 | 1.0 | 6.0 | 0.00 | 0.00 | 0.00 | 64 | 1013.7 |
| 20260830225103 | 66 | 90 | 4.0 | 6.0 | 0.00 | 0.00 | 0.00 | 64 | 1013.6 |
| 20260830225003 | 66 | 82 | 2.0 | 4.0 | 0.00 | 0.00 | 0.00 | 64 | 1013.6 |
| 20260830224903 | 66 | 78 | 2.0 | 4.0 | 0.00 | 0.00 | 0.00 | 64 | 1013.8 |
| 20260830224817 | 66 | 76 | 2.0 | 4.0 | 0.00 | 0.00 | 0.00 | 64 | 1013.7 |
| 20260830224803 | 66 | 74 | 2.0 | 4.0 | 0.00 | 0.00 | 0.00 | 64 | 1013.7 |
| 20260830224703 | 66 | 75 | 1.0 | 4.0 | 0.00 | 0.00 | 0.00 | 64 | 1013.6 |
| 20260830224503 | 66 | 84 | 2.0 | 6.0 | 0.00 | 0.00 | 0.00 | 64 | 1013.6 |
| 20260830224417 | 66 | 84 | 1.0 | 6.0 | 0.00 | 0.00 | 0.00 | 64 | 1013.5 |
| 20260830224403 | 66 | 83 | 1.0 | 6.0 | 0.00 | 0.00 | 0.00 | 64 | 1013.5 |
| 20260830224304 | 66 | 86 | 2.0 | 8.0 | 0.00 | 0.00 | 0.00 | 64 | 1013.6 |
| 20260830224103 | 66 | 81 | 3.0 | 8.0 | 0.00 | 0.00 | 0.00 | 63 | 1013.5 |
| 20260830224003 | 67 | 80 | 2.0 | 8.0 | 0.00 | 0.00 | 0.00 | 63 | 1013.6 |
| 20260830223903 | 67 | 84 | 3.0 | 8.0 | 0.00 | 0.00 | 0.00 | 62 | 1013.7 |
| 20260830223803 | 67 | 76 | 4.0 | 8.0 | 0.00 | 0.00 | 0.00 | 62 | 1013.5 |
| 20260830223703 | 67 | 75 | 2.0 | 6.0 | 0.00 | 0.00 | 0.00 | 62 | 1013.6 |
| 20260830223603 | 67 | 76 | 2.0 | 6.0 | 0.00 | 0.00 | 0.00 | 62 | 1013.6 |
| 20260830223504 | 67 | 74 | 2.0 | 6.0 | 0.00 | 0.00 | 0.00 | 62 | 1013.5 |
| 20260830223405 | 67 | 68 | 3.0 | 7.0 | 0.00 | 0.00 | 0.00 | 62 | 1013.5 |
| 20260830223307 | 67 | 68 | 3.0 | 8.0 | 0.00 | 0.00 | 0.00 | 62 | 1013.5 |
| 20260830223203 | 67 | 66 | 3.0 | 8.0 | 0.00 | 0.00 | 0.00 | 62 | 1013.6 |
| 20260830223117 | 67 | 65 | 4.0 | 8.0 | 0.00 | 0.00 | 0.00 | 62 | 1013.4 |
| 20260830223103 | 67 | 63 | 2.0 | 8.0 | 0.00 | 0.00 | 0.00 | 62 | 1013.3 |
| 20260830223003 | 67 | 60 | 2.0 | 8.0 | 0.00 | 0.00 | 0.00 | 61 | 1013.5 |
| 20260830222803 | 67 | 61 | 3.0 | 8.0 | 0.00 | 0.00 | 0.00 | 61 | 1013.6 |
| 20260830222703 | 67 | 63 | 3.0 | 6.0 | 0.00 | 0.00 | 0.00 | 61 | 1013.4 |
| 20260830222603 | 67 | 66 | 2.0 | 6.0 | 0.00 | 0.00 | 0.00 | 61 | 1013.1 |
| 20260830222503 | 67 | 70 | 3.0 | 6.0 | 0.00 | 0.00 | 0.00 | 60 | 1013.3 |
| 20260830222403 | 67 | 64 | 2.0 | 8.0 | 0.00 | 0.00 | 0.00 | 61 | 1013.4 |
| 20260830222306 | 67 | 58 | 2.0 | 8.0 | 0.00 | 0.00 | 0.00 | 60 | 1013.3 |
| 20260830222203 | 67 | 61 | 3.0 | 8.0 | 0.00 | 0.00 | 0.00 | 61 | 1013.2 |
| 20260830222103 | 67 | 61 | 3.0 | 9.0 | 0.00 | 0.00 | 0.00 | 61 | 1013.3 |
| 20260830222003 | 67 | 65 | 3.0 | 9.0 | 0.00 | 0.00 | 0.00 | 61 | 1013.4 |
| 20260830221903 | 67 | 67 | 4.0 | 9.0 | 0.00 | 0.00 | 0.00 | 61 | 1013.3 |
| 20260830221803 | 67 | 77 | 4.0 | 9.0 | 0.00 | 0.00 | 0.00 | 61 | 1013.2 |
| 20260830221703 | 67 | 65 | 3.0 | 9.0 | 0.00 | 0.00 | 0.00 | 61 | 1013.4 |
| 20260830221603 | 67 | 68 | 5.0 | 9.0 | 0.00 | 0.00 | 0.00 | 62 | 1013.3 |
| 20260830221503 | 68 | 66 | 2.0 | 8.0 | 0.00 | 0.00 | 0.00 | 62 | 1013.1 |
| 20260830221403 | 68 | 76 | 3.0 | 8.0 | 0.00 | 0.00 | 0.00 | 62 | 1013.2 |
| 20260830221303 | 68 | 81 | 3.0 | 8.0 | 0.00 | 0.00 | 0.00 | 62 | 1013.1 |
| 20260830221203 | 68 | 82 | 2.0 | 8.0 | 0.00 | 0.00 | 0.00 | 62 | 1012.9 |
| 20260830221103 | 68 | 89 | 2.0 | 8.0 | 0.00 | 0.00 | 0.00 | 62 | 1013.0 |
| 20260830221003 | 68 | 90 | 2.0 | 8.0 | 0.00 | 0.00 | 0.00 | 62 | 1013.0 |
| 20260830220903 | 68 | 82 | 3.0 | 8.0 | 0.00 | 0.00 | 0.00 | 63 | 1013.0 |
| 20260830220803 | 68 | 74 | 2.0 | 8.0 | 0.00 | 0.00 | 0.00 | 62 | 1013.1 |
| 20260830220703 | 68 | 74 | 2.0 | 7.0 | 0.00 | 0.00 | 0.00 | 63 | 1012.9 |
| 20260830220603 | 68 | 66 | 2.0 | 7.0 | 0.00 | 0.00 | 0.00 | 62 | 1013.1 |
| 20260830220505 | 68 | 58 | 2.0 | 7.0 | 0.00 | 0.00 | 0.00 | 62 | 1013.2 |
| 20260830220403 | 68 | 57 | 3.0 | 6.0 | 0.00 | 0.00 | 0.00 | 62 | 1013.0 |
| 20260830220218 | 68 | 64 | 2.0 | 7.0 | 0.00 | 0.00 | 0.00 | 62 | 1012.9 |
| 20260830215903 | 69 | 58 | 2.0 | 8.0 | 0.00 | 0.00 | 0.00 | 61 | 1012.9 |
| 20260830215803 | 69 | 49 | 2.0 | 8.0 | 0.00 | 0.00 | 0.00 | 61 | 1013.0 |
| 20260830215705 | 69 | 43 | 3.0 | 8.0 | 0.00 | 0.00 | 0.00 | 61 | 1013.0 |
| 20260830215603 | 69 | 45 | 2.0 | 8.0 | 0.00 | 0.00 | 0.00 | 61 | 1013.0 |
| 20260830215503 | 69 | 39 | 3.0 | 6.0 | 0.00 | 0.00 | 0.00 | 60 | 1012.9 |
| 20260830215405 | 69 | 50 | 2.0 | 6.0 | 0.00 | 0.00 | 0.00 | 60 | 1013.0 |
| 20260830215305 | 69 | 61 | 3.0 | 6.0 | 0.00 | 0.00 | 0.00 | 60 | 1012.8 |
| 20260830215203 | 69 | 83 | 2.0 | 4.0 | 0.00 | 0.00 | 0.00 | 60 | 1012.6 |
| 20260830215117 | 69 | 91 | 2.0 | 4.0 | 0.00 | 0.00 | 0.00 | 60 | 1012.9 |
| 20260830215103 | 69 | 93 | 1.0 | 4.0 | 0.00 | 0.00 | 0.00 | 60 | 1012.9 |
| 20260830215017 | 69 | 99 | 2.0 | 4.0 | 0.00 | 0.00 | 0.00 | 60 | 1013.1 |
| 20260830215003 | 69 | 101 | 2.0 | 4.0 | 0.00 | 0.00 | 0.00 | 60 | 1013.1 |
| 20260830214717 | 69 | 79 | 3.0 | 4.0 | 0.00 | 0.00 | 0.00 | 60 | 1012.7 |
| 20260830214705 | 69 | 79 | 2.0 | 4.0 | 0.00 | 0.00 | 0.00 | 60 | 1012.8 |
| 20260830214603 | 69 | 74 | 2.0 | 4.0 | 0.00 | 0.00 | 0.00 | 60 | 1012.8 |
| 20260830214403 | 69 | 67 | 1.0 | 7.0 | 0.00 | 0.00 | 0.00 | 59 | 1012.9 |
| 20260830214303 | 69 | 64 | 2.0 | 7.0 | 0.00 | 0.00 | 0.00 | 59 | 1013.0 |
| 20260830214204 | 69 | 66 | 2.0 | 7.0 | 0.00 | 0.00 | 0.00 | 59 | 1012.9 |
| 20260830214105 | 70 | 65 | 2.0 | 7.0 | 0.00 | 0.00 | 0.00 | 59 | 1013.0 |
| 20260830214003 | 70 | 70 | 3.0 | 7.0 | 0.00 | 0.00 | 0.00 | 58 | 1013.0 |
| 20260830213903 | 70 | 60 | 2.0 | 7.0 | 0.00 | 0.00 | 0.00 | 58 | 1013.0 |
| 20260830213805 | 70 | 62 | 3.0 | 7.0 | 0.00 | 0.00 | 0.00 | 58 | 1013.1 |
| 20260830213719 | 70 | 60 | 3.0 | 7.0 | 0.00 | 0.00 | 0.00 | 58 | 1013.1 |
| 20260830213703 | 70 | 59 | 3.0 | 7.0 | 0.00 | 0.00 | 0.00 | 58 | 1013.1 |
| 20260830213603 | 70 | 49 | 4.0 | 7.0 | 0.00 | 0.00 | 0.00 | 58 | 1012.9 |
| 20260830213403 | 70 | 47 | 2.0 | 6.0 | 0.00 | 0.00 | 0.00 | 57 | 1012.7 |
| 20260830213303 | 70 | 54 | 0.0 | 7.0 | 0.00 | 0.00 | 0.00 | 57 | 1013.1 |
| 20260830213203 | 70 | 56 | 0.0 | 7.0 | 0.00 | 0.00 | 0.00 | 57 | 1013.0 |
| 20260830213103 | 71 | 68 | 2.0 | 7.0 | 0.00 | 0.00 | 0.00 | 57 | 1012.8 |
| 20260830213017 | 71 | 78 | 1.0 | 7.0 | 0.00 | 0.00 | 0.00 | 57 | 1012.9 |
| 20260830213003 | 71 | 83 | 1.0 | 7.0 | 0.00 | 0.00 | 0.00 | 57 | 1012.9 |
| 20260830212903 | 71 | 90 | 2.0 | 7.0 | 0.00 | 0.00 | 0.00 | 57 | 1012.9 |
| 20260830212816 | 71 | 90 | 4.0 | 7.0 | 0.00 | 0.00 | 0.00 | 57 | 1013.0 |
| 20260830212703 | 71 | 91 | 3.0 | 7.0 | 0.00 | 0.00 | 0.00 | 56 | 1013.2 |
| 20260830212503 | 71 | 62 | 3.0 | 7.0 | 0.00 | 0.00 | 0.00 | 56 | 1012.8 |
| 20260830212403 | 71 | 44 | 3.0 | 7.0 | 0.00 | 0.00 | 0.00 | 56 | 1013.0 |
| 20260830212306 | 72 | 45 | 2.0 | 6.0 | 0.00 | 0.00 | 0.00 | 56 | 1013.0 |
| 20260830212203 | 72 | 46 | 2.0 | 6.0 | 0.00 | 0.00 | 0.00 | 56 | 1013.0 |
| 20260830212103 | 72 | 39 | 1.0 | 6.0 | 0.00 | 0.00 | 0.00 | 57 | 1013.0 |
| 20260830212003 | 72 | 40 | 2.0 | 6.0 | 0.00 | 0.00 | 0.00 | 56 | 1012.9 |
| 20260830211903 | 72 | 47 | 1.0 | 6.0 | 0.00 | 0.00 | 0.00 | 56 | 1013.0 |
| 20260830211803 | 72 | 51 | 2.0 | 6.0 | 0.00 | 0.00 | 0.00 | 56 | 1012.8 |
| 20260830211703 | 72 | 51 | 1.0 | 6.0 | 0.00 | 0.00 | 0.00 | 56 | 1013.1 |
| 20260830211603 | 72 | 50 | 1.0 | 7.0 | 0.00 | 0.00 | 0.00 | 56 | 1013.0 |
| 20260830211303 | 72 | 55 | 2.0 | 7.0 | 0.00 | 0.00 | 0.00 | 55 | 1013.2 |
| 20260830211203 | 72 | 57 | 3.0 | 8.0 | 0.00 | 0.00 | 0.00 | 55 | 1012.8 |
| 20260830211103 | 72 | 65 | 4.0 | 9.0 | 0.00 | 0.00 | 0.00 | 55 | 1012.9 |
| 20260830211003 | 72 | 61 | 4.0 | 9.0 | 0.00 | 0.00 | 0.00 | 55 | 1013.1 |
| 20260830210903 | 72 | 58 | 3.0 | 9.0 | 0.00 | 0.00 | 0.00 | 54 | 1012.8 |
| 20260830210818 | 72 | 56 | 4.0 | 9.0 | 0.00 | 0.00 | 0.00 | 54 | 1013.0 |
| 20260830210803 | 72 | 54 | 4.0 | 9.0 | 0.00 | 0.00 | 0.00 | 54 | 1013.0 |
| 20260830210703 | 72 | 50 | 4.0 | 9.0 | 0.00 | 0.00 | 0.00 | 53 | 1012.7 |
| 20260830210504 | 73 | 31 | 3.0 | 7.0 | 0.00 | 0.00 | 0.00 | 53 | 1013.1 |
| 20260830210405 | 73 | 42 | 2.0 | 7.0 | 0.00 | 0.00 | 0.00 | 53 | 1013.0 |
| 20260830210304 | 73 | 66 | 3.0 | 7.0 | 0.00 | 0.00 | 0.00 | 53 | 1013.1 |
| 20260830210203 | 73 | 88 | 3.0 | 7.0 | 0.00 | 0.00 | 0.00 | 52 | 1013.3 |
| 20260830210103 | 73 | 105 | 3.0 | 7.0 | 0.00 | 0.00 | 0.00 | 52 | 1013.1 |
| 20260830210003 | 73 | 124 | 4.0 | 8.0 | 0.00 | 0.00 | 0.00 | 53 | 1013.2 |
| 20260830205903 | 73 | 117 | 2.0 | 8.0 | 0.00 | 0.00 | 0.00 | 52 | 1013.3 |
| 20260830205803 | 73 | 110 | 2.0 | 8.0 | 0.00 | 0.00 | 0.00 | 53 | 1013.1 |
| 20260830205703 | 73 | 99 | 4.0 | 8.0 | 0.00 | 0.00 | 0.00 | 53 | 1013.2 |
| 20260830205603 | 73 | 95 | 3.0 | 8.0 | 0.00 | 0.00 | 0.00 | 53 | 1013.1 |
| 20260830205503 | 73 | 81 | 3.0 | 8.0 | 0.00 | 0.00 | 0.00 | 53 | 1013.1 |
| 20260830205403 | 73 | 76 | 3.0 | 8.0 | 0.00 | 0.00 | 0.00 | 53 | 1013.1 |
| 20260830205305 | 73 | 74 | 5.0 | 8.0 | 0.00 | 0.00 | 0.00 | 53 | 1013.2 |
| 20260830205203 | 73 | 78 | 2.0 | 8.0 | 0.00 | 0.00 | 0.00 | 53 | 1013.0 |
| 20260830205103 | 73 | 76 | 4.0 | 11.0 | 0.00 | 0.00 | 0.00 | 52 | 1013.2 |
| 20260830205003 | 73 | 80 | 3.0 | 11.0 | 0.00 | 0.00 | 0.00 | 52 | 1013.1 |
| 20260830204905 | 73 | 78 | 4.0 | 11.0 | 0.00 | 0.00 | 0.00 | 52 | 1013.2 |
| 20260830204803 | 73 | 68 | 4.0 | 11.0 | 0.00 | 0.00 | 0.00 | 52 | 1013.2 |
| 20260830204717 | 73 | 57 | 4.0 | 11.0 | 0.00 | 0.00 | 0.00 | 52 | 1013.0 |
| 20260830204703 | 73 | 53 | 4.0 | 11.0 | 0.00 | 0.00 | 0.00 | 52 | 1012.9 |
| 20260830204603 | 73 | 49 | 4.0 | 11.0 | 0.00 | 0.00 | 0.00 | 52 | 1013.0 |
| 20260830204518 | 73 | 45 | 2.0 | 8.0 | 0.00 | 0.00 | 0.00 | 51 | 1013.3 |
| 20260830204403 | 73 | 37 | 3.0 | 8.0 | 0.00 | 0.00 | 0.00 | 51 | 1012.9 |
| 20260830204203 | 73 | 66 | 4.0 | 11.0 | 0.00 | 0.00 | 0.00 | 51 | 1012.7 |
| 20260830204103 | 73 | 70 | 3.0 | 11.0 | 0.00 | 0.00 | 0.00 | 51 | 1013.0 |
| 20260830204017 | 73 | 73 | 4.0 | 11.0 | 0.00 | 0.00 | 0.00 | 51 | 1013.1 |
| 20260830203703 | 72 | 86 | 5.0 | 11.0 | 0.00 | 0.00 | 0.00 | 51 | 1013.1 |
| 20260830203603 | 73 | 88 | 3.0 | 11.0 | 0.00 | 0.00 | 0.00 | 52 | 1013.1 |
| 20260830203503 | 72 | 87 | 4.0 | 11.0 | 0.00 | 0.00 | 0.00 | 52 | 1013.0 |
| 20260830203416 | 72 | 88 | 7.0 | 11.0 | 0.00 | 0.00 | 0.00 | 52 | 1012.9 |
| 20260830203403 | 72 | 86 | 7.0 | 11.0 | 0.00 | 0.00 | 0.00 | 52 | 1012.9 |
| 20260830203303 | 72 | 87 | 4.0 | 11.0 | 0.00 | 0.00 | 0.00 | 52 | 1013.2 |
| 20260830203103 | 73 | 79 | 4.0 | 11.0 | 0.00 | 0.00 | 0.00 | 51 | 1012.9 |
| 20260830203017 | 73 | 69 | 3.0 | 11.0 | 0.00 | 0.00 | 0.00 | 51 | 1013.1 |
| 20260830203003 | 73 | 70 | 3.0 | 11.0 | 0.00 | 0.00 | 0.00 | 51 | 1013.1 |
| 20260830202918 | 73 | 70 | 5.0 | 13.0 | 0.00 | 0.00 | 0.00 | 51 | 1012.9 |
| 20260830202903 | 73 | 68 | 5.0 | 13.0 | 0.00 | 0.00 | 0.00 | 51 | 1012.9 |
| 20260830202603 | 73 | 73 | 4.0 | 14.0 | 0.00 | 0.00 | 0.00 | 50 | 1012.9 |
| 20260830202503 | 73 | 69 | 4.0 | 14.0 | 0.00 | 0.00 | 0.00 | 50 | 1013.1 |
| 20260830202417 | 73 | 76 | 6.0 | 14.0 | 0.00 | 0.00 | 0.00 | 50 | 1013.1 |
| 20260830202403 | 73 | 81 | 6.0 | 14.0 | 0.00 | 0.00 | 0.00 | 50 | 1013.1 |
| 20260830202305 | 73 | 89 | 6.0 | 14.0 | 0.00 | 0.00 | 0.00 | 50 | 1013.2 |
| 20260830202103 | 73 | 84 | 4.0 | 11.0 | 0.00 | 0.00 | 0.00 | 50 | 1013.1 |
| 20260830202003 | 73 | 112 | 6.0 | 14.0 | 0.00 | 0.00 | 0.00 | 50 | 1013.1 |
| 20260830201903 | 73 | 94 | 6.0 | 14.0 | 0.00 | 0.00 | 0.00 | 50 | 1013.0 |
| 20260830201803 | 73 | 87 | 4.0 | 14.0 | 0.00 | 0.00 | 0.00 | 50 | 1012.8 |
| 20260830201703 | 73 | 80 | 6.0 | 14.0 | 0.00 | 0.00 | 0.00 | 49 | 1013.1 |
| 20260830201603 | 73 | 71 | 6.0 | 14.0 | 0.00 | 0.00 | 0.00 | 49 | 1013.1 |
| 20260830201503 | 73 | 57 | 8.0 | 13.0 | 0.00 | 0.00 | 0.00 | 49 | 1013.0 |
| 20260830201403 | 74 | 53 | 4.0 | 11.0 | 0.00 | 0.00 | 0.00 | 49 | 1013.1 |
| 20260830201303 | 74 | 55 | 5.0 | 11.0 | 0.00 | 0.00 | 0.00 | 49 | 1013.1 |
| 20260830201118 | 74 | 69 | 4.0 | 11.0 | 0.00 | 0.00 | 0.00 | 50 | 1013.2 |
| 20260830201103 | 74 | 70 | 4.0 | 11.0 | 0.00 | 0.00 | 0.00 | 50 | 1013.1 |
| 20260830201003 | 74 | 81 | 6.0 | 11.0 | 0.00 | 0.00 | 0.00 | 49 | 1013.1 |
| 20260830200803 | 74 | 96 | 4.0 | 14.0 | 0.00 | 0.00 | 0.00 | 49 | 1013.0 |
| 20260830200703 | 74 | 97 | 4.0 | 14.0 | 0.00 | 0.00 | 0.00 | 49 | 1013.2 |
| 20260830200603 | 73 | 104 | 7.0 | 14.0 | 0.00 | 0.00 | 0.00 | 49 | 1013.1 |
| 20260830200503 | 74 | 104 | 5.0 | 14.0 | 0.00 | 0.00 | 0.00 | 48 | 1013.0 |
| 20260830200403 | 74 | 98 | 6.0 | 14.0 | 0.00 | 0.00 | 0.00 | 48 | 1013.0 |
| 20260830200303 | 74 | 112 | 8.0 | 14.0 | 0.00 | 0.00 | 0.00 | 48 | 1013.1 |
| 20260830200203 | 74 | 118 | 8.0 | 14.0 | 0.00 | 0.00 | 0.00 | 48 | 1013.1 |
| 20260830200103 | 74 | 94 | 7.0 | 14.0 | 0.00 | 0.00 | 0.00 | 48 | 1013.2 |
| 20260830200003 | 74 | 99 | 4.0 | 14.0 | 0.00 | 0.00 | 0.00 | 48 | 1013.1 |
| 20260830195903 | 74 | 118 | 7.0 | 15.0 | 0.00 | 0.00 | 0.00 | 48 | 1013.0 |
| 20260830195803 | 74 | 83 | 4.0 | 15.0 | 0.00 | 0.00 | 0.00 | 48 | 1013.0 |
| 20260830195703 | 74 | 69 | 4.0 | 15.0 | 0.00 | 0.00 | 0.00 | 48 | 1012.9 |
| 20260830195603 | 74 | 84 | 4.0 | 15.0 | 0.00 | 0.00 | 0.00 | 49 | 1013.1 |
| 20260830195503 | 73 | 77 | 7.0 | 15.0 | 0.00 | 0.00 | 0.00 | 49 | 1013.0 |
| 20260830195418 | 73 | 68 | 8.0 | 15.0 | 0.00 | 0.00 | 0.00 | 49 | 1012.9 |
| 20260830195403 | 73 | 74 | 8.0 | 15.0 | 0.00 | 0.00 | 0.00 | 49 | 1012.9 |
| 20260830195313 | 73 | 88 | 7.0 | 13.0 | 0.00 | 0.00 | 0.00 | 49 | 1013.2 |
| 20260830195217 | 73 | 95 | 8.0 | 13.0 | 0.00 | 0.00 | 0.00 | 49 | 1012.9 |
| 20260830195103 | 73 | 92 | 5.0 | 13.0 | 0.00 | 0.00 | 0.00 | 49 | 1013.1 |
| 20260830194903 | 74 | 66 | 6.0 | 13.0 | 0.00 | 0.00 | 0.00 | 49 | 1013.1 |
| 20260830194803 | 73 | 62 | 5.0 | 13.0 | 0.00 | 0.00 | 0.00 | 49 | 1012.9 |
| 20260830194703 | 74 | 59 | 4.0 | 13.0 | 0.00 | 0.00 | 0.00 | 49 | 1012.9 |
| 20260830194603 | 74 | 56 | 5.0 | 13.0 | 0.00 | 0.00 | 0.00 | 49 | 1013.0 |
| 20260830194503 | 74 | 61 | 4.0 | 14.0 | 0.00 | 0.00 | 0.00 | 50 | 1012.9 |
| 20260830194403 | 74 | 72 | 4.0 | 14.0 | 0.00 | 0.00 | 0.00 | 50 | 1013.1 |
| 20260830194319 | 74 | 73 | 5.0 | 14.0 | 0.00 | 0.00 | 0.00 | 49 | 1013.2 |
| 20260830194303 | 74 | 71 | 6.0 | 14.0 | 0.00 | 0.00 | 0.00 | 49 | 1013.0 |
| 20260830194217 | 74 | 70 | 4.0 | 14.0 | 0.00 | 0.00 | 0.00 | 49 | 1012.9 |
| 20260830194203 | 74 | 68 | 4.0 | 14.0 | 0.00 | 0.00 | 0.00 | 49 | 1012.9 |
| 20260830193903 | 74 | 75 | 6.0 | 13.0 | 0.00 | 0.00 | 0.00 | 49 | 1012.8 |
| 20260830193803 | 73 | 100 | 7.0 | 13.0 | 0.00 | 0.00 | 0.00 | 49 | 1012.8 |
| 20260830193703 | 74 | 116 | 7.0 | 13.0 | 0.00 | 0.00 | 0.00 | 49 | 1012.7 |
| 20260830193603 | 74 | 125 | 5.0 | 13.0 | 0.00 | 0.00 | 0.00 | 50 | 1012.9 |
| 20260830193503 | 74 | 119 | 6.0 | 13.0 | 0.00 | 0.00 | 0.00 | 51 | 1012.9 |
| 20260830193403 | 74 | 118 | 4.0 | 13.0 | 0.00 | 0.00 | 0.00 | 50 | 1012.9 |
| 20260830193305 | 74 | 104 | 4.0 | 9.0 | 0.00 | 0.00 | 0.00 | 50 | 1012.9 |
| 20260830193203 | 74 | 75 | 4.0 | 9.0 | 0.00 | 0.00 | 0.00 | 50 | 1013.1 |
| 20260830193103 | 74 | 34 | 4.0 | 9.0 | 0.00 | 0.00 | 0.00 | 50 | 1013.0 |
| 20260830193003 | 74 | 11 | 4.0 | 11.0 | 0.00 | 0.00 | 0.00 | 50 | 1012.8 |
| 20260830192903 | 75 | 23 | 3.0 | 11.0 | 0.00 | 0.00 | 0.00 | 49 | 1012.9 |
| 20260830192803 | 75 | 50 | 2.0 | 11.0 | 0.00 | 0.00 | 0.00 | 50 | 1012.8 |
| 20260830192703 | 74 | 64 | 2.0 | 11.0 | 0.00 | 0.00 | 0.00 | 51 | 1012.9 |
| 20260830192603 | 74 | 75 | 4.0 | 11.0 | 0.00 | 0.00 | 0.00 | 51 | 1013.1 |
| 20260830192503 | 74 | 89 | 6.0 | 11.0 | 0.00 | 0.00 | 0.00 | 50 | 1013.1 |
| 20260830192403 | 74 | 101 | 7.0 | 11.0 | 0.00 | 0.00 | 0.00 | 49 | 1013.0 |
| 20260830192316 | 74 | 93 | 7.0 | 11.0 | 0.00 | 0.00 | 0.00 | 50 | 1013.0 |
| 20260830192305 | 74 | 95 | 5.0 | 11.0 | 0.00 | 0.00 | 0.00 | 51 | 1013.0 |
| 20260830192203 | 74 | 121 | 2.0 | 11.0 | 0.00 | 0.00 | 0.00 | 51 | 1013.0 |
| 20260830192003 | 74 | 116 | 4.0 | 13.0 | 0.00 | 0.00 | 0.00 | 51 | 1012.9 |
| 20260830191903 | 74 | 74 | 6.0 | 13.0 | 0.00 | 0.00 | 0.00 | 51 | 1013.0 |
| 20260830191803 | 74 | 37 | 5.0 | 13.0 | 0.00 | 0.00 | 0.00 | 51 | 1013.0 |
| 20260830191703 | 74 | 33 | 7.0 | 13.0 | 0.00 | 0.00 | 0.00 | 51 | 1013.0 |
| 20260830191603 | 74 | 37 | 6.0 | 13.0 | 0.00 | 0.00 | 0.00 | 50 | 1013.2 |
| 20260830191503 | 74 | 51 | 4.0 | 13.0 | 0.00 | 0.00 | 0.00 | 50 | 1013.1 |
| 20260830191403 | 74 | 57 | 7.0 | 13.0 | 0.00 | 0.00 | 0.00 | 51 | 1013.1 |
| 20260830191317 | 74 | 72 | 6.0 | 13.0 | 0.00 | 0.00 | 0.00 | 50 | 1013.0 |
| 20260830191303 | 74 | 79 | 6.0 | 13.0 | 0.00 | 0.00 | 0.00 | 50 | 1013.0 |
| 20260830191203 | 74 | 76 | 4.0 | 13.0 | 0.00 | 0.00 | 0.00 | 50 | 1013.0 |
| 20260830191003 | 74 | 46 | 8.0 | 13.0 | 0.00 | 0.00 | 0.00 | 51 | 1013.0 |
| 20260830190903 | 74 | 36 | 5.0 | 13.0 | 0.00 | 0.00 | 0.00 | 52 | 1013.2 |
| 20260830190803 | 74 | 40 | 5.0 | 13.0 | 0.00 | 0.00 | 0.00 | 53 | 1013.1 |
| 20260830190703 | 73 | 359 | 8.0 | 13.0 | 0.00 | 0.00 | 0.00 | 53 | 1013.1 |
| 20260830190604 | 74 | 281 | 6.0 | 13.0 | 0.00 | 0.00 | 0.00 | 52 | 1013.1 |
| 20260830190504 | 74 | 262 | 8.0 | 13.0 | 0.00 | 0.00 | 0.00 | 51 | 1013.0 |
| 20260830190403 | 74 | 241 | 6.0 | 11.0 | 0.00 | 0.00 | 0.00 | 51 | 1012.9 |
| 20260830190303 | 74 | 265 | 4.0 | 11.0 | 0.00 | 0.00 | 0.00 | 51 | 1013.2 |
| 20260830190203 | 74 | 137 | 5.0 | 11.0 | 0.00 | 0.00 | 0.00 | 50 | 1013.3 |
| 20260830190103 | 74 | 86 | 5.0 | 14.0 | 0.00 | 0.00 | 0.00 | 50 | 1013.1 |
| 20260830190004 | 74 | 73 | 5.0 | 14.0 | 0.00 | 0.00 | 0.00 | 50 | 1013.0 |
| 20260830185903 | 74 | 60 | 4.0 | 14.0 | 0.00 | 0.00 | 0.00 | 51 | 1013.2 |
| 20260830185803 | 74 | 50 | 4.0 | 14.0 | 0.00 | 0.00 | 0.00 | 50 | 1013.1 |
| 20260830185703 | 74 | 45 | 5.0 | 14.0 | 0.00 | 0.00 | 0.00 | 51 | 1013.1 |
| 20260830185603 | 74 | 29 | 8.0 | 14.0 | 0.00 | 0.00 | 0.00 | 51 | 1013.3 |
| 20260830185503 | 74 | 13 | 5.0 | 13.0 | 0.00 | 0.00 | 0.00 | 51 | 1013.1 |
| 20260830185403 | 74 | 355 | 8.0 | 13.0 | 0.00 | 0.00 | 0.00 | 51 | 1013.3 |
| 20260830185306 | 74 | 41 | 4.0 | 11.0 | 0.00 | 0.00 | 0.00 | 51 | 1013.2 |
| 20260830185203 | 75 | 30 | 2.0 | 11.0 | 0.00 | 0.00 | 0.00 | 51 | 1013.1 |
| 20260830185104 | 74 | 120 | 4.0 | 11.0 | 0.00 | 0.00 | 0.00 | 51 | 1013.2 |
| 20260830185003 | 74 | 77 | 3.0 | 11.0 | 0.00 | 0.00 | 0.00 | 51 | 1013.0 |
| 20260830184903 | 74 | 88 | 6.0 | 11.0 | 0.00 | 0.00 | 0.00 | 52 | 1013.3 |
| 20260830184803 | 74 | 100 | 5.0 | 11.0 | 0.00 | 0.00 | 0.00 | 52 | 1013.2 |
| 20260830184703 | 74 | 42 | 5.0 | 11.0 | 0.00 | 0.00 | 0.00 | 51 | 1013.1 |
| 20260830184617 | 75 | 20 | 2.0 | 13.0 | 0.00 | 0.00 | 0.00 | 51 | 1013.2 |
| 20260830184603 | 75 | 22 | 2.0 | 13.0 | 0.00 | 0.00 | 0.00 | 51 | 1013.2 |
| 20260830184504 | 74 | 23 | 2.0 | 13.0 | 0.00 | 0.00 | 0.00 | 52 | 1013.2 |
| 20260830184303 | 74 | 25 | 3.0 | 13.0 | 0.00 | 0.00 | 0.00 | 52 | 1013.3 |
| 20260830184203 | 74 | 27 | 3.0 | 13.0 | 0.00 | 0.00 | 0.00 | 52 | 1013.1 |
| 20260830184103 | 73 | 32 | 6.0 | 13.0 | 0.00 | 0.00 | 0.00 | 52 | 1013.1 |
| 20260830184003 | 73 | 43 | 4.0 | 11.0 | 0.00 | 0.00 | 0.00 | 53 | 1013.2 |
| 20260830183903 | 73 | 60 | 5.0 | 11.0 | 0.00 | 0.00 | 0.00 | 54 | 1013.4 |
| 20260830183803 | 73 | 62 | 3.0 | 11.0 | 0.00 | 0.00 | 0.00 | 55 | 1013.4 |
| 20260830183703 | 73 | 63 | 4.0 | 11.0 | 0.00 | 0.00 | 0.00 | 55 | 1013.1 |
| 20260830183603 | 73 | 65 | 4.0 | 11.0 | 0.00 | 0.00 | 0.00 | 54 | 1013.2 |
| 20260830183503 | 73 | 72 | 4.0 | 11.0 | 0.00 | 0.00 | 0.00 | 53 | 1013.1 |
| 20260830183418 | 73 | 69 | 5.0 | 11.0 | 0.00 | 0.00 | 0.00 | 53 | 1013.5 |
| 20260830183403 | 73 | 73 | 5.0 | 11.0 | 0.00 | 0.00 | 0.00 | 53 | 1013.5 |
| 20260830183303 | 73 | 57 | 4.0 | 14.0 | 0.00 | 0.00 | 0.00 | 53 | 1013.4 |
| 20260830183217 | 74 | 58 | 4.0 | 14.0 | 0.00 | 0.00 | 0.00 | 53 | 1013.2 |
| 20260830183103 | 73 | 49 | 4.0 | 14.0 | 0.00 | 0.00 | 0.00 | 54 | 1013.4 |
| 20260830182903 | 73 | 39 | 7.0 | 14.0 | 0.00 | 0.00 | 0.00 | 55 | 1013.5 |
| 20260830182803 | 73 | 50 | 8.0 | 14.0 | 0.00 | 0.00 | 0.00 | 55 | 1013.2 |
| 20260830182703 | 73 | 66 | 5.0 | 11.0 | 0.00 | 0.00 | 0.00 | 57 | 1013.3 |
| 20260830182616 | 73 | 84 | 5.0 | 13.0 | 0.00 | 0.00 | 0.00 | 57 | 1013.2 |
| 20260830182603 | 73 | 88 | 5.0 | 13.0 | 0.00 | 0.00 | 0.00 | 57 | 1013.2 |
| 20260830182503 | 73 | 94 | 5.0 | 13.0 | 0.00 | 0.00 | 0.00 | 58 | 1013.1 |
| 20260830182306 | 74 | 56 | 2.0 | 13.0 | 0.00 | 0.00 | 0.00 | 58 | 1013.4 |
| 20260830182203 | 73 | 39 | 3.0 | 13.0 | 0.00 | 0.00 | 0.00 | 58 | 1013.4 |
| 20260830182117 | 73 | 35 | 5.0 | 13.0 | 0.00 | 0.00 | 0.00 | 58 | 1013.3 |
| 20260830182103 | 73 | 33 | 5.0 | 13.0 | 0.00 | 0.00 | 0.00 | 58 | 1013.3 |
| 20260830182003 | 73 | 32 | 4.0 | 11.0 | 0.00 | 0.00 | 0.00 | 59 | 1013.5 |
| 20260830181916 | 73 | 38 | 4.0 | 11.0 | 0.00 | 0.00 | 0.00 | 58 | 1013.3 |
| 20260830181817 | 73 | 47 | 5.0 | 11.0 | 0.00 | 0.00 | 0.00 | 59 | 1013.3 |
| 20260830181803 | 73 | 52 | 5.0 | 11.0 | 0.00 | 0.00 | 0.00 | 59 | 1013.3 |
| 20260830181517 | 72 | 55 | 4.0 | 9.0 | 0.00 | 0.00 | 0.00 | 61 | 1013.4 |
| 20260830181503 | 72 | 53 | 2.0 | 9.0 | 0.00 | 0.00 | 0.00 | 61 | 1013.3 |
| 20260830181403 | 72 | 45 | 3.0 | 9.0 | 0.00 | 0.00 | 0.00 | 61 | 1013.4 |
| 20260830181203 | 72 | 17 | 5.0 | 9.0 | 0.00 | 0.00 | 0.00 | 61 | 1013.5 |
| 20260830181103 | 72 | 14 | 4.0 | 9.0 | 0.00 | 0.00 | 0.00 | 60 | 1013.4 |
| 20260830181018 | 73 | 4 | 4.0 | 9.0 | 0.00 | 0.00 | 0.00 | 60 | 1013.4 |
| 20260830181003 | 73 | 2 | 4.0 | 9.0 | 0.00 | 0.00 | 0.00 | 60 | 1013.4 |
| 20260830180917 | 73 | 3 | 4.0 | 9.0 | 0.00 | 0.00 | 0.00 | 60 | 1013.4 |
| 20260830180903 | 73 | 1 | 4.0 | 9.0 | 0.00 | 0.00 | 0.00 | 60 | 1013.4 |
| 20260830180603 | 73 | 46 | 2.0 | 11.0 | 0.00 | 0.00 | 0.00 | 60 | 1013.6 |
| 20260830180503 | 72 | 37 | 4.0 | 11.0 | 0.00 | 0.00 | 0.00 | 60 | 1013.6 |
| 20260830180418 | 72 | 40 | 4.0 | 11.0 | 0.00 | 0.00 | 0.00 | 61 | 1013.5 |
| 20260830180403 | 72 | 42 | 4.0 | 11.0 | 0.00 | 0.00 | 0.00 | 61 | 1013.5 |
| 20260830180303 | 72 | 50 | 4.0 | 9.0 | 0.00 | 0.00 | 0.00 | 60 | 1013.6 |
| 20260830180117 | 72 | 80 | 5.0 | 11.0 | 0.00 | 0.00 | 0.00 | 61 | 1013.5 |
| 20260830180103 | 72 | 83 | 5.0 | 11.0 | 0.00 | 0.00 | 0.00 | 61 | 1013.5 |
| 20260830180018 | 72 | 83 | 4.0 | 11.0 | 0.00 | 0.00 | 0.00 | 61 | 1013.7 |
| 20260830180003 | 72 | 84 | 4.0 | 11.0 | 0.00 | 0.00 | 0.00 | 61 | 1013.7 |
| 20260830175703 | 72 | 95 | 5.0 | 11.0 | 0.00 | 0.00 | 0.00 | 62 | 1013.9 |
| 20260830175603 | 72 | 97 | 5.0 | 11.0 | 0.00 | 0.00 | 0.00 | 61 | 1013.9 |
| 20260830175503 | 72 | 98 | 4.0 | 11.0 | 0.00 | 0.00 | 0.00 | 61 | 1013.9 |
| 20260830175404 | 72 | 78 | 4.0 | 11.0 | 0.00 | 0.00 | 0.00 | 61 | 1013.7 |
| 20260830175305 | 72 | 78 | 5.0 | 11.0 | 0.00 | 0.00 | 0.00 | 61 | 1014.0 |
| 20260830175203 | 72 | 88 | 4.0 | 11.0 | 0.00 | 0.00 | 0.00 | 61 | 1013.8 |
| 20260830175103 | 72 | 88 | 4.0 | 8.0 | 0.00 | 0.00 | 0.00 | 62 | 1013.7 |
| 20260830175003 | 72 | 98 | 3.0 | 7.0 | 0.00 | 0.00 | 0.00 | 62 | 1014.3 |
| 20260830174903 | 72 | 116 | 3.0 | 7.0 | 0.00 | 0.00 | 0.00 | 62 | 1013.7 |
| 20260830174803 | 72 | 114 | 3.0 | 9.0 | 0.00 | 0.00 | 0.00 | 63 | 1014.1 |
| 20260830174703 | 71 | 103 | 4.0 | 9.0 | 0.00 | 0.00 | 0.00 | 62 | 1013.8 |
| 20260830174618 | 72 | 96 | 5.0 | 9.0 | 0.00 | 0.00 | 0.00 | 63 | 1014.1 |
| 20260830174603 | 72 | 95 | 5.0 | 9.0 | 0.00 | 0.00 | 0.00 | 63 | 1014.1 |
| 20260830174503 | 72 | 100 | 4.0 | 9.0 | 0.00 | 0.00 | 0.00 | 62 | 1013.9 |
| 20260830174303 | 72 | 60 | 4.0 | 11.0 | 0.00 | 0.00 | 0.00 | 62 | 1014.0 |
| 20260830174217 | 72 | 81 | 5.0 | 11.0 | 0.00 | 0.00 | 0.00 | 62 | 1014.1 |
| 20260830174206 | 72 | 84 | 5.0 | 11.0 | 0.00 | 0.00 | 0.00 | 62 | 1014.1 |
| 20260830174103 | 72 | 99 | 4.0 | 11.0 | 0.00 | 0.00 | 0.00 | 62 | 1014.1 |
| 20260830173903 | 72 | 91 | 4.0 | 11.0 | 0.00 | 0.00 | 0.00 | 63 | 1014.0 |
| 20260830173817 | 72 | 84 | 6.0 | 11.0 | 0.00 | 0.00 | 0.00 | 63 | 1014.0 |
| 20260830173803 | 72 | 61 | 6.0 | 11.0 | 0.00 | 0.00 | 0.00 | 63 | 1014.0 |
| 20260830173703 | 72 | 55 | 4.0 | 11.0 | 0.00 | 0.00 | 0.00 | 63 | 1014.0 |
| 20260830173503 | 72 | 32 | 3.0 | 11.0 | 0.00 | 0.00 | 0.00 | 64 | 1014.1 |
| 20260830173403 | 72 | 56 | 4.0 | 11.0 | 0.00 | 0.00 | 0.00 | 64 | 1014.1 |
| 20260830173303 | 72 | 69 | 4.0 | 11.0 | 0.00 | 0.00 | 0.00 | 64 | 1014.1 |
| 20260830173217 | 72 | 70 | 3.0 | 11.0 | 0.00 | 0.00 | 0.00 | 64 | 1013.9 |
| 20260830173203 | 72 | 69 | 3.0 | 11.0 | 0.00 | 0.00 | 0.00 | 64 | 1013.9 |
| 20260830173117 | 72 | 68 | 2.0 | 11.0 | 0.00 | 0.00 | 0.00 | 64 | 1014.2 |
| 20260830173103 | 72 | 72 | 3.0 | 11.0 | 0.00 | 0.00 | 0.00 | 64 | 1014.2 |
| 20260830172918 | 71 | 71 | 3.0 | 11.0 | 0.00 | 0.00 | 0.00 | 64 | 1014.1 |
| 20260830172803 | 71 | 67 | 6.0 | 11.0 | 0.00 | 0.00 | 0.00 | 65 | 1014.2 |
| 20260830172618 | 71 | 63 | 7.0 | 11.0 | 0.00 | 0.00 | 0.00 | 63 | 1014.1 |